GFSFLT1_prec_cthk_000.txt.gz
RH
22 22 19 19 18 16 15 17 16 15 18 19 23 20 16 16 16 17 19 21 21 21 18 18 18 18 16 16 16 15 14 13 13
21 18 17 16 15 15 15 17 16 14 15 16 18 20 18 19 20 19 20 21 20 20 19 18 19 19 19 17 17 17 17 16 15
19 16 15 13 13 13 16 18 18 16 15 15 15 17 16 17 19 21 20 21 21 24 20 18 18 19 19 19 19 18 18 18 17
16 18 15 13 14 19 21 21 20 19 17 16 15 15 16 16 18 19 19 20 21 20 25 18 18 19 19 20 21 21 21 20 20
12 14 14 14 16 20 21 16 17 16 17 17 16 15 15 16 17 18 19 20 21 21 24 21 19 18 18 19 21 22 23 23 23
14 15 15 16 18 18 18 23 17 17 16 16 16 15 14 15 17 18 19 20 21 22 23 29 25 20 20 19 19 21 23 24 25
20 20 21 22 23 23 23 23 22 22 20 18 17 16 14 15 16 18 19 20 22 23 23 25 30 26 21 20 19 21 23 25 26
25 26 26 26 26 26 27 26 26 24 23 21 20 18 16 14 14 16 18 20 20 21 22 25 30 30 28 23 22 22 23 25 26
30 31 32 32 31 31 32 31 31 30 29 26 24 21 19 17 16 16 17 19 19 20 21 23 29 30 30 29 26 24 24 26 26
32 32 32 32 33 33 34 33 32 32 32 32 30 28 27 24 20 18 17 17 19 21 21 20 23 28 29 35 29 29 27 28 28
29 29 30 31 33 33 33 33 33 32 32 31 33 33 33 31 29 26 22 21 19 20 21 23 22 23 29 34 39 37 35 33 31
30 29 31 33 36 37 36 35 36 36 36 34 33 33 32 32 31 29 27 26 26 25 24 24 25 25 26 30 32 41 49 52 48
40 39 38 38 39 40 40 40 40 40 41 41 40 37 36 34 33 34 33 31 29 30 31 32 31 30 30 34 38 40 40 41 45
42 43 43 45 45 46 47 47 50 49 49 48 47 46 43 41 39 36 35 36 37 34 33 37 40 42 44 44 44 45 45 45 46
47 49 50 51 50 50 50 51 53 53 51 51 49 51 48 46 45 46 47 46 45 46 47 45 44 47 49 51 51 51 49 49 50
50 51 49 48 46 45 45 45 45 44 47 49 44 44 43 44 44 44 42 42 43 45 48 50 48 45 44 45 44 44 46 48 51
40 37 36 36 36 37 40 43 45 46 48 51 51 48 46 44 48 50 51 52 52 50 48 48 50 52 49 47 48 50 50 50 49
35 35 35 37 37 38 38 40 42 46 47 50 54 55 54 57 51 54 51 54 57 62 64 61 56 57 58 56 56 57 61 63 61
38 39 37 34 32 31 31 32 33 34 36 39 46 52 55 58 54 55 56 60 61 62 67 71 73 71 65 63 63 64 65 67 69
32 30 30 30 31 31 31 31 30 30 30 31 34 38 41 48 57 49 49 51 56 57 57 60 71 81 86 85 78 74 73 72 71

GFSFLT1_prec_cthk_003.txt.gz
RH
20 21 16 16 17 17 16 15 17 18 18 22 23 25 24 19 19 20 20 20 21 20 26 23 23 20 20 18 17 16 15 14 13
21 20 17 17 15 15 16 15 15 16 16 17 23 24 24 21 18 19 19 20 22 21 25 22 18 18 18 19 18 17 16 16 15
24 20 19 17 14 14 19 20 19 19 18 16 15 20 23 20 16 18 19 19 21 23 25 25 18 18 19 19 19 18 17 17 18
21 20 20 20 18 18 21 21 22 22 22 17 17 16 15 18 16 17 19 20 21 23 23 26 27 25 20 19 19 19 19 18 19
20 23 22 22 23 22 24 24 23 23 22 16 16 17 17 16 15 16 17 19 20 22 24 27 27 28 24 20 20 20 20 20 20
20 20 20 20 21 22 22 27 27 27 24 20 19 18 17 17 15 14 15 17 18 19 21 25 28 28 28 26 22 22 21 20 20
24 24 25 26 27 28 28 28 28 28 27 25 24 22 20 17 16 14 14 15 16 16 17 20 23 27 28 29 25 23 22 21 21
28 29 30 31 32 32 32 32 32 31 31 30 30 29 27 24 21 18 15 14 16 17 17 18 20 23 26 27 29 28 26 23 21
33 33 34 35 35 35 34 32 32 31 31 30 30 30 29 28 26 23 22 20 17 17 18 19 19 19 23 27 27 27 26 24 23
31 33 33 34 35 34 33 33 33 32 32 32 31 30 29 29 28 26 24 25 24 22 18 18 19 19 20 23 25 27 32 28 25
33 33 33 35 38 39 39 39 38 36 36 35 36 35 35 34 31 28 26 25 25 26 23 21 19 20 21 23 25 26 28 40 39
38 38 39 40 41 42 42 42 41 41 41 41 41 42 42 43 42 39 34 32 31 32 32 32 31 29 27 27 28 27 27 32 38
43 43 44 44 46 47 48 48 48 47 47 46 46 47 45 45 46 47 45 43 42 40 39 42 41 40 39 40 42 40 38 37 37
44 47 48 50 49 48 48 47 47 45 44 45 43 42 42 42 42 43 44 44 44 43 44 44 45 47 48 47 47 48 47 47 47
45 46 46 43 41 40 39 38 37 37 37 39 38 38 39 39 38 37 40 42 44 46 47 48 48 50 51 52 54 54 53 53 52
37 35 35 36 37 36 36 36 36 36 36 37 35 34 35 36 38 42 43 45 44 46 48 52 52 51 50 53 57 58 57 56 52
37 37 36 36 36 36 34 31 27 27 28 34 34 36 32 37 42 39 39 41 47 53 57 59 59 62 59 58 57 60 62 61 59
38 37 35 32 29 27 27 27 28 28 28 29 32 37 35 30 29 31 33 39 46 45 45 50 60 66 71 72 69 65 62 64 65
32 30 30 30 31 31 31 31 30 30 30 30 33 32 35 39 32 32 32 32 38 38 39 40 42 48 54 61 67 70 73 74 75
32 33 32 31 30 28 27 26 25 25 26 28 31 32 34 36 39 33 38 38 40 37 36 36 39 42 47 47 55 66 76 85 89

GFSFLT1_prec_cthk_006.txt.gz
RH
28 21 19 18 17 17 17 16 16 16 17 17 21 24 23 24 24 23 23 24 27 22 20 26 20 26 26 23 20 17 16 15 14
30 22 20 20 19 15 16 19 18 16 15 15 15 21 23 23 24 23 22 24 24 20 25 25 25 23 25 25 22 20 17 16 14
28 26 20 20 19 17 20 20 20 20 20 20 18 16 20 23 23 23 23 21 18 19 25 24 25 25 23 22 20 20 19 18 17
22 24 20 20 20 20 18 22 21 23 22 23 21 18 17 19 21 23 22 22 18 19 25 25 24 25 25 26 27 24 23 20 20
23 21 22 20 22 20 19 19 21 22 25 21 19 17 16 18 22 22 22 18 16 17 18 22 24 24 26 26 26 23 20 23 21
26 26 25 24 24 25 25 26 27 27 27 27 26 25 24 25 23 21 17 14 15 16 16 17 21 24 24 26 26 25 23 20 21
28 28 28 28 29 30 30 31 31 31 33 34 32 31 32 31 29 26 23 19 15 14 15 15 16 17 22 24 25 26 26 27 22
31 32 33 34 34 33 34 34 35 35 33 32 31 31 31 30 30 27 24 24 23 19 14 15 16 17 17 19 22 25 26 26 24
31 32 34 35 36 37 36 36 35 35 34 34 33 33 32 31 30 26 23 23 24 23 22 20 16 16 18 18 19 21 25 26 25
33 36 36 38 39 38 38 38 39 39 40 40 40 39 38 37 36 34 31 29 27 26 25 23 22 20 18 17 18 18 19 25 26
34 35 36 37 39 39 40 41 40 40 42 41 43 43 43 43 43 44 43 40 39 39 36 34 33 31 28 25 22 22 23 24 27
40 41 42 46 46 46 48 49 50 50 49 48 48 47 47 46 46 47 45 44 42 41 42 41 39 39 39 38 36 31 28 27 27
42 43 46 46 47 49 49 48 46 44 44 43 42 42 41 39 39 40 40 41 41 41 41 44 45 45 44 44 44 44 43 40 38
43 43 42 40 38 36 35 36 37 37 38 39 37 36 35 34 34 36 37 39 39 39 40 42 44 48 49 49 49 50 51 51 49
40 35 33 32 32 33 35 37 37 37 37 34 34 31 31 32 38 39 39 41 42 43 43 45 47 45 49 52 53 52 53 55 58
34 35 35 35 36 36 34 32 30 29 30 29 29 27 29 32 32 38 37 31 36 41 44 44 49 53 57 57 58 61 60 59 61
37 38 38 35 31 28 28 28 28 30 29 29 28 28 27 29 28 25 28 29 30 38 43 47 48 53 57 58 63 67 69 71 64
37 32 28 27 27 27 26 25 24 25 24 24 26 28 28 27 27 27 28 32 30 31 34 37 37 40 47 46 45 53 65 74 73
29 29 28 27 25 22 20 18 17 19 20 20 20 20 27 29 28 28 28 27 29 27 28 30 31 34 39 48 53 48 44 48 62
30 27 22 19 18 18 17 16 15 16 19 20 21 22 26 25 26 22 24 24 25 24 24 28 32 31 33 48 54 55 63 71 75

GFSFLT1_prec_cthk_009.txt.gz
RH
29 25 22 21 22 18 16 16 15 15 14 14 15 18 22 21 23 24 22 22 22 24 21 18 23 21 24 26 25 23 19 17 15
30 28 24 21 20 18 15 19 19 19 18 17 15 13 15 17 21 21 23 21 23 24 20 22 22 24 21 22 25 25 26 20 17
37 28 28 19 19 18 17 17 18 19 19 19 17 15 14 13 15 14 19 20 18 16 16 18 24 23 23 21 18 18 17 18 18
30 27 24 20 19 19 16 16 17 17 19 18 16 16 16 15 15 19 20 20 19 15 15 16 23 24 24 24 22 19 19 18 18
27 26 25 22 21 21 21 22 21 22 23 24 24 24 23 22 23 24 22 21 16 14 15 16 17 22 25 23 24 23 19 18 19
34 33 28 27 28 28 28 29 29 28 28 28 30 30 28 29 30 28 26 25 21 17 15 15 16 17 18 22 22 23 23 21 20
31 29 29 30 30 31 31 31 30 30 30 32 32 30 30 29 26 26 25 24 25 23 21 18 14 14 15 16 18 20 25 25 24
32 33 33 32 33 33 36 36 36 37 38 38 37 35 33 32 31 29 28 26 25 25 24 23 21 18 15 14 16 16 18 21 26
34 35 35 36 36 37 38 39 40 42 41 41 40 41 41 40 39 37 35 34 33 33 34 33 31 28 24 20 15 15 16 17 19
39 40 38 38 39 40 43 44 44 45 44 45 44 44 45 45 46 45 43 43 42 42 43 44 44 41 38 35 32 28 22 20 20
43 46 49 50 50 49 48 48 49 49 49 48 49 47 47 47 46 45 44 43 42 40 39 39 40 42 43 43 38 34 34 33 25
48 49 50 50 49 50 50 49 46 44 43 41 41 40 41 39 38 39 39 39 39 39 38 37 38 41 43 46 48 47 45 43 40
48 49 50 48 45 40 36 34 32 33 34 38 39 38 35 33 32 32 34 39 38 37 37 39 40 42 43 44 46 49 55 56 53
46 44 38 36 34 33 32 34 36 37 35 34 32 28 29 28 28 33 39 42 44 46 42 34 37 38 41 47 50 50 50 52 56
36 34 32 33 35 37 37 36 33 30 29 26 25 25 22 24 29 36 31 32 35 37 28 36 45 41 46 42 49 55 62 60 57
32 34 38 40 38 34 29 26 24 23 24 22 21 18 21 20 25 26 29 27 22 24 26 31 41 50 49 46 55 58 59 61 71
41 41 37 32 26 23 21 21 19 20 19 19 18 20 18 19 16 17 18 21 26 24 26 23 24 27 29 31 34 37 47 51 55
37 33 28 24 22 20 17 17 17 18 18 18 20 22 21 20 20 18 22 22 18 21 18 16 17 17 16 17 21 28 38 41 52
32 28 26 23 20 19 17 16 16 17 19 18 18 18 19 24 23 22 19 17 16 14 15 15 15 17 23 24 27 36 41 45 51
27 24 20 18 18 17 17 18 17 17 19 18 18 20 22 21 19 17 15 13 13 13 15 17 15 17 27 29 36 40 41 42 45

GFSFLT1_prec_cthk_012.txt.gz
RH
28 28 24 20 18 17 14 14 14 15 14 14 13 12 12 12 14 15 20 21 18 22 24 23 19 17 19 20 23 23 21 17 17
29 29 24 19 15 16 13 12 12 13 14 13 14 11 10 10 10 11 12 15 18 17 21 16 16 18 17 16 15 21 23 20 18
33 31 26 20 13 13 12 12 13 13 14 14 15 14 14 14 13 13 13 16 19 17 15 14 14 15 15 18 18 15 16 17 18
37 32 26 20 19 18 17 17 18 18 19 19 20 20 20 21 21 19 18 17 21 20 16 15 15 16 17 17 22 23 18 16 16
32 31 30 28 27 27 26 26 25 24 24 25 26 27 28 27 26 25 25 25 24 24 20 16 15 15 16 17 21 22 26 22 18
33 33 30 29 30 30 30 31 31 31 31 31 32 32 31 30 29 28 27 26 25 25 24 24 23 19 16 15 16 20 19 23 25
31 28 30 30 31 31 32 32 33 34 33 33 33 34 34 34 33 33 33 32 32 31 29 28 27 26 24 20 16 16 19 20 23
32 32 33 32 32 33 33 34 35 37 37 39 39 39 37 38 38 39 39 40 40 39 39 38 39 38 36 33 32 27 20 19 21
37 38 38 38 39 40 42 45 45 46 48 48 47 47 49 49 49 46 46 46 47 47 47 47 46 46 46 47 45 42 40 35 27
39 41 45 51 53 50 50 48 48 48 46 47 47 47 46 44 46 44 44 45 45 43 44 44 45 45 46 45 48 49 47 44 40
44 47 51 50 50 49 49 45 43 38 38 36 33 35 36 37 37 37 35 35 36 37 37 38 38 41 42 43 43 47 54 59 55
46 51 51 51 47 43 38 34 33 32 32 33 36 38 37 35 33 30 29 31 35 38 40 43 45 42 34 34 41 41 44 50 58
47 47 43 38 35 33 31 32 33 34 34 34 31 26 24 22 22 24 29 31 35 41 42 43 33 44 42 38 44 44 45 46 47
43 35 32 30 30 33 35 36 34 30 25 22 20 19 18 17 22 24 25 28 30 33 37 39 30 34 28 39 48 52 57 51 52
32 29 29 34 37 37 34 29 23 19 18 16 15 14 16 18 18 19 21 22 22 21 20 20 21 21 28 34 34 38 47 48 45
30 33 38 39 34 30 25 20 18 17 15 15 14 14 14 14 16 14 14 13 14 16 18 18 17 18 16 15 17 20 24 24 29
36 38 37 32 28 24 20 18 17 16 15 16 15 16 14 15 13 15 13 17 17 13 10 10 9 10 10 10 10 12 13 18 23
38 36 31 25 20 18 16 16 16 16 16 16 17 18 17 15 15 12 14 12 11 10 9 9 10 11 13 10 8 13 19 25 30
34 28 24 21 18 17 17 17 17 17 17 16 16 15 16 17 18 15 12 12 11 10 12 11 16 14 8 11 20 24 26 34 36
28 25 24 22 19 18 18 18 18 18 18 18 16 15 16 14 15 16 15 14 13 13 14 16 13 12 13 13 14 15 17 21 26

GFSFLT1_prec_cthk_015.txt.gz
RH
28 21 18 18 14 13 12 13 13 13 13 13 13 12 11 10 9 10 13 15 16 18 22 19 19 19 16 19 21 23 24 24 17
34 30 22 18 12 12 12 12 12 12 12 12 12 11 11 11 11 11 12 13 16 18 20 22 21 15 15 15 16 17 21 25 20
42 40 29 25 19 18 17 17 16 16 17 17 18 18 19 20 20 19 17 16 18 22 25 24 19 18 18 24 21 23 19 17 19
38 37 33 29 28 27 27 26 26 25 24 24 25 25 26 27 27 27 27 28 27 27 32 31 23 18 17 19 27 25 27 25 21
28 29 31 32 32 32 33 33 34 34 34 33 33 33 33 32 31 31 32 31 30 29 32 32 28 26 23 20 18 24 27 27 28
27 27 28 30 32 34 35 36 36 36 36 36 37 37 36 37 37 37 37 35 34 33 33 32 31 30 29 28 28 25 22 26 26
30 28 29 30 31 31 32 33 34 36 38 41 42 43 42 42 42 42 42 41 41 42 42 41 41 40 40 38 37 36 35 34 28
34 35 36 36 36 37 41 43 43 42 41 40 40 44 45 47 48 43 43 46 44 45 47 46 45 46 47 46 46 49 47 46 44
39 38 38 40 44 44 44 45 46 46 45 46 42 40 40 39 40 37 37 38 41 43 47 50 48 50 46 44 45 44 50 53 49
43 43 43 44 45 46 46 44 41 38 34 32 31 30 32 34 36 39 41 39 38 38 40 42 41 40 41 42 49 47 47 48 52
48 47 47 47 47 46 44 38 35 30 30 31 31 32 34 34 33 30 29 27 27 31 35 39 45 49 51 51 50 46 41 44 47
48 48 49 48 45 38 30 27 29 31 33 33 32 28 25 22 20 19 20 21 24 29 32 38 40 39 40 41 38 45 46 53 54
48 48 47 39 30 26 29 32 34 32 28 24 19 16 15 15 16 18 20 24 26 27 28 29 31 35 29 36 28 30 29 44 51
49 40 34 30 30 32 34 33 28 24 20 17 15 15 14 16 15 16 16 16 18 19 19 21 22 23 20 21 20 22 24 24 29
37 33 32 33 34 34 32 27 23 20 17 16 15 14 14 13 13 14 13 12 12 12 14 13 11 10 10 11 12 13 14 16 21
34 35 36 34 31 29 24 20 17 17 16 15 14 13 13 13 12 10 10 10 11 12 13 11 9 9 9 9 8 8 8 8 14
37 35 32 30 27 22 19 17 17 17 16 15 15 14 13 14 12 14 12 13 14 12 10 10 11 11 12 13 12 10 10 18 18
35 33 30 26 22 20 18 18 17 17 17 17 18 19 18 16 16 14 15 13 14 13 12 12 13 15 15 13 10 9 10 19 22
35 30 27 26 23 21 19 19 19 19 19 19 18 17 18 19 19 17 14 15 14 13 13 13 15 15 14 13 12 12 17 16 18
32 29 29 26 22 21 21 22 22 22 21 20 18 18 18 18 20 19 18 16 15 14 15 14 14 16 14 14 11 12 14 16 19

GFSFLT1_prec_cthk_018.txt.gz
RH
33 23 19 18 14 13 14 14 14 15 16 16 16 15 13 13 12 11 11 12 16 19 23 22 22 21 21 20 21 23 23 24 25
44 35 28 20 15 14 14 15 15 16 16 16 17 17 17 18 19 19 18 15 16 17 21 24 23 23 24 23 22 23 23 23 25
42 39 35 30 26 25 24 24 24 23 22 22 22 23 24 26 27 26 25 25 23 24 26 28 27 27 26 26 27 28 27 27 25
34 36 34 33 33 33 33 33 34 34 34 34 34 33 33 32 32 31 31 30 30 30 30 33 35 35 32 30 27 26 28 28 35
25 25 27 29 31 34 37 37 38 38 38 38 38 38 38 38 38 38 38 38 38 37 36 35 37 35 32 31 30 28 27 26 28
29 29 28 28 28 28 30 31 32 34 36 38 40 41 41 42 42 43 43 43 43 41 40 41 40 39 39 37 36 33 33 30 30
34 33 35 35 34 35 37 37 40 40 39 41 41 39 39 38 38 41 40 40 40 41 45 47 46 45 45 45 44 43 42 42 43
37 39 39 40 41 42 42 43 44 44 42 41 39 38 37 38 38 37 36 35 36 36 40 45 51 52 51 51 49 49 49 55 53
41 41 44 45 45 44 44 44 43 42 41 39 37 35 35 35 35 38 38 39 39 40 40 40 38 44 50 52 54 57 57 60 56
44 46 46 48 47 45 45 44 42 38 34 32 33 34 33 33 33 31 30 28 28 28 28 29 30 32 39 43 45 46 52 52 49
45 43 48 49 48 47 45 39 31 29 30 32 32 31 28 25 23 22 21 20 21 21 24 28 31 33 35 38 41 43 44 46 46
48 52 53 51 48 42 33 30 30 31 30 27 23 22 20 18 16 16 17 19 21 24 26 28 29 25 32 32 35 34 36 39 36
55 55 53 46 34 31 33 31 30 28 26 23 21 19 17 17 18 19 19 20 19 18 18 20 22 27 28 28 25 26 22 19 21
56 50 37 34 34 34 33 30 26 22 20 20 19 17 17 17 15 15 15 14 12 12 13 15 16 15 14 13 12 12 13 13 13
40 37 37 37 35 31 28 23 19 18 19 18 17 16 16 15 13 12 11 11 10 13 13 12 11 10 10 10 10 10 10 10 12
37 39 38 35 31 27 21 17 17 19 18 17 16 15 15 14 14 13 13 13 13 13 13 13 12 12 11 11 12 12 11 16 16
40 38 37 34 28 21 18 19 20 20 19 18 18 17 16 17 15 16 15 15 15 15 15 14 14 14 14 13 13 12 11 13 18
39 39 36 30 23 20 20 21 20 20 20 20 20 19 19 17 17 17 18 17 17 17 16 15 15 14 13 13 13 12 12 16 16
41 38 32 27 24 24 23 23 22 22 22 22 21 20 20 20 19 19 19 19 18 17 16 15 14 12 12 11 11 11 13 14 16
37 34 31 31 28 26 25 24 23 24 23 22 21 21 21 21 23 23 20 17 14 11 10 9 9 9 11 12 12 14 16 18 27

GFSFLT1_prec_cthk_021.txt.gz
RH
38 32 24 19 15 13 13 14 15 15 16 17 17 17 17 17 16 15 14 13 12 16 17 22 23 23 23 24 24 23 25 29 28
44 37 35 30 24 21 20 19 19 18 18 18 18 19 20 22 24 24 23 22 20 18 20 23 24 24 28 25 25 24 25 24 23
41 38 38 33 32 32 32 31 31 31 32 31 31 32 32 31 31 31 31 31 30 30 29 29 31 31 31 27 26 24 27 30 32
31 30 29 29 31 33 36 37 39 39 39 39 39 38 38 38 38 38 37 36 36 35 34 32 31 32 33 33 33 32 32 30 31
31 28 28 28 30 29 30 31 33 34 36 37 40 41 42 42 42 42 43 43 43 43 43 43 42 42 42 39 36 33 32 33 30
31 31 33 36 36 35 36 38 40 40 40 40 41 41 41 41 40 40 41 40 40 40 42 47 47 45 42 42 41 41 41 40 39
34 35 36 39 40 41 44 44 43 43 42 40 40 39 38 38 38 38 38 36 35 37 38 44 45 46 49 51 50 48 44 44 50
39 39 40 42 44 46 47 45 44 42 41 40 39 38 36 36 36 36 37 39 39 38 37 36 36 38 46 48 50 54 61 63 63
43 43 44 44 46 47 47 46 45 42 39 39 36 34 35 34 33 34 33 32 30 30 31 29 29 31 34 37 48 49 52 53 54
46 45 47 44 45 47 46 46 42 40 38 35 32 30 28 27 26 25 25 25 25 25 25 25 27 27 29 32 35 38 41 41 44
49 48 46 49 50 49 46 41 37 33 32 30 27 26 24 21 20 20 19 18 18 19 20 21 22 24 27 30 32 33 33 35 37
50 49 52 54 51 46 39 36 34 33 29 27 25 22 21 20 19 19 19 20 20 20 20 22 22 24 27 26 25 26 27 26 30
53 53 55 53 41 35 37 36 33 29 25 21 18 17 19 19 19 20 18 17 16 16 14 14 15 16 18 19 22 22 22 21 21
54 53 44 35 37 37 35 31 26 21 18 17 17 18 18 18 18 16 16 14 13 12 12 14 15 14 14 13 13 12 12 12 11
47 37 37 38 37 35 32 26 19 17 16 17 17 19 18 18 18 16 16 14 14 14 15 14 14 14 13 13 13 13 13 13 12
31 35 38 37 36 33 26 19 17 17 17 19 20 20 19 18 17 17 16 16 16 16 15 15 16 16 16 16 15 15 14 15 16
36 38 38 38 35 26 20 18 18 20 22 22 21 20 19 19 19 19 18 18 18 18 18 18 18 17 17 16 14 13 12 13 17
40 42 42 38 29 24 21 19 23 24 24 22 22 21 21 20 20 20 20 21 21 21 20 18 15 12 10 8 8 7 7 10 14
45 43 39 34 30 26 23 25 26 25 23 23 23 22 22 23 22 22 23 22 19 16 13 10 9 8 8 9 10 9 11 14 15
45 41 38 34 32 30 30 28 26 25 24 24 23 23 24 25 26 25 21 17 13 11 10 8 8 9 10 11 11 13 16 16 17

GFSFLT1_prec_cthk_024.txt.gz
RH
41 36 32 23 19 18 17 17 17 16 16 16 16 17 17 19 20 20 19 18 15 14 16 19 23 22 22 23 22 20 25 29 29
42 37 34 31 30 30 30 31 30 29 27 27 27 27 27 28 29 28 27 26 25 24 22 22 25 25 24 27 25 26 24 23 23
39 33 33 31 32 33 35 36 38 39 39 40 40 39 39 39 38 38 36 35 34 32 30 29 28 29 30 30 28 27 26 26 28
39 35 31 27 28 30 32 31 33 34 36 38 40 40 41 40 40 40 40 40 40 40 40 40 38 36 35 36 34 34 33 32 31
35 33 32 35 36 37 37 37 37 38 38 40 40 40 41 42 42 42 41 41 40 40 40 45 48 48 44 43 42 41 41 38 38
34 33 35 38 38 40 42 44 44 43 43 42 40 39 38 38 37 37 38 40 38 38 43 46 47 50 51 54 53 50 48 44 40
38 39 39 41 43 46 47 47 44 45 43 41 39 39 39 39 39 38 37 38 40 39 37 38 39 43 46 48 49 56 57 57 53
42 43 44 45 47 49 47 46 45 44 42 39 39 37 36 36 34 31 31 33 34 34 34 34 34 34 34 35 43 49 51 53 57
47 47 47 48 50 48 46 46 44 42 41 40 37 35 32 30 26 25 24 24 24 24 23 24 25 25 26 27 29 32 34 43 48
53 51 50 50 49 47 49 48 41 39 37 34 32 30 26 24 24 22 21 20 20 20 20 21 21 21 23 25 27 28 30 30 32
57 53 51 50 49 49 49 43 37 35 34 33 30 25 22 21 20 19 18 19 21 21 21 22 22 23 24 24 24 25 27 28 28
57 54 53 54 52 50 38 36 37 35 33 28 23 20 19 19 18 18 19 21 21 20 19 19 18 18 19 20 21 24 24 24 24
58 55 55 55 43 35 37 37 34 30 25 21 18 17 16 16 16 18 19 18 17 16 15 15 14 15 16 16 16 16 16 16 17
59 56 54 38 31 36 37 35 31 25 20 17 17 17 16 16 18 21 20 19 17 16 15 16 16 15 15 15 15 15 15 15 15
59 54 38 32 32 36 35 31 25 20 17 17 17 17 19 21 21 21 19 19 17 17 17 17 16 16 17 17 17 17 17 16 16
53 39 36 33 35 36 32 26 20 17 17 18 19 21 22 21 20 19 19 21 19 19 19 19 19 20 19 19 18 16 14 12 11
42 40 39 40 40 35 30 23 20 20 20 21 23 22 21 20 20 21 21 20 21 22 22 22 22 20 18 15 12 10 9 9 14
42 41 44 43 39 35 29 25 23 22 22 24 24 23 22 23 22 21 22 23 24 24 24 23 19 16 13 11 11 10 10 11 17
43 45 46 44 40 35 31 28 25 25 26 26 25 26 26 24 22 23 24 25 26 24 21 17 14 13 12 11 11 11 11 16 19
46 48 48 47 43 39 35 30 30 28 27 27 28 28 27 26 26 26 25 25 23 20 16 14 12 12 12 12 12 12 17 18 19

GFSFLT1_prec_cthk_027.txt.gz
RH
36 33 30 26 25 24 23 22 21 20 20 19 19 20 20 21 23 22 21 21 19 17 16 19 20 24 24 22 22 19 23 34 35
38 36 34 31 31 32 32 33 33 34 34 35 35 36 36 37 36 35 35 34 32 31 28 25 24 24 23 24 24 23 20 20 22
39 36 33 29 29 31 31 32 34 35 36 37 38 39 38 39 38 37 36 35 35 35 35 35 34 32 33 31 29 27 26 24 23
41 37 34 31 33 36 36 36 36 36 36 37 38 39 39 37 37 37 38 39 39 38 37 39 42 40 38 38 38 37 36 35 34
42 36 33 36 37 39 40 40 42 43 43 44 43 40 39 37 38 35 37 39 40 38 42 53 49 55 58 61 58 53 49 43 40
37 35 37 39 39 41 43 44 44 43 44 43 43 40 40 39 38 38 37 37 38 38 37 36 38 43 46 52 54 60 63 56 55
39 39 42 43 44 46 47 47 44 44 41 39 39 38 38 37 36 36 33 32 33 34 36 37 37 36 36 38 43 49 50 53 57
46 45 45 46 47 47 48 47 44 43 41 38 37 37 36 34 32 30 27 25 26 25 24 24 22 23 24 27 29 31 35 40 45
52 52 50 50 49 49 48 47 44 42 39 37 34 32 31 30 26 23 23 22 22 23 23 22 21 21 22 23 25 26 27 28 29
58 58 55 52 50 49 48 47 44 41 36 35 33 32 29 26 22 21 20 20 19 19 19 20 20 21 22 23 23 24 25 25 25
60 58 56 53 51 50 50 44 36 36 36 34 30 26 23 20 18 18 17 17 18 19 20 21 21 20 21 21 22 23 23 23 23
63 59 57 55 52 51 41 34 36 36 33 29 24 21 19 17 16 16 17 17 17 17 18 18 17 17 16 16 16 16 17 17 18
65 61 58 55 53 38 36 34 33 34 31 25 21 19 17 16 16 17 18 19 21 20 19 18 17 16 16 16 16 16 16 16 16
65 63 57 52 38 37 36 31 32 31 25 20 19 17 17 17 18 19 22 22 21 19 18 17 17 18 18 18 17 17 17 18 18
64 63 57 41 38 38 37 32 29 24 21 19 18 18 19 19 20 22 22 20 20 21 20 19 19 19 19 19 20 20 20 20 18
69 64 49 41 41 43 40 36 30 25 22 19 18 19 20 19 22 23 21 21 20 20 20 20 20 20 21 21 21 20 19 16 13
66 54 44 44 46 44 42 38 33 27 21 19 20 20 22 23 24 23 23 23 23 22 22 22 23 24 23 22 20 17 15 13 12
61 48 46 48 47 46 46 43 37 28 22 21 21 22 25 24 24 25 25 24 24 24 24 25 25 24 21 18 16 15 13 12 13
52 47 49 50 50 51 50 47 39 30 26 22 23 24 25 25 25 26 26 24 24 25 26 24 22 19 17 16 15 14 13 13 21
47 48 51 52 53 53 51 47 43 35 27 24 25 25 25 25 24 25 27 27 27 26 24 21 19 17 15 14 14 13 18 21 20

GFSFLT1_prec_cthk_030.txt.gz
RH
33 30 27 25 24 23 22 22 22 22 23 24 24 23 24 26 31 31 31 28 28 26 23 23 24 26 30 25 22 22 20 25 33
33 31 30 29 30 30 30 30 31 33 34 35 36 37 38 38 42 40 37 36 35 33 31 29 29 28 27 27 27 25 22 21 24
38 32 30 28 29 30 31 32 33 33 33 34 34 34 34 36 38 37 36 36 36 36 36 35 35 34 31 31 32 33 33 31 28
41 38 35 31 33 35 36 36 37 38 40 41 42 41 39 39 42 40 41 41 41 43 46 42 49 54 56 51 47 44 41 37 35
44 41 36 35 36 37 38 39 42 43 44 43 43 41 38 39 37 38 37 38 38 40 40 37 45 48 48 55 58 62 64 62 60
44 40 36 40 40 40 42 44 45 44 42 41 40 37 37 38 37 37 35 35 34 35 35 36 36 36 37 42 48 51 54 54 60
42 39 41 42 43 45 47 47 46 44 42 38 38 37 35 35 34 34 34 33 30 27 27 29 28 28 29 29 30 33 36 40 47
46 47 48 47 48 49 47 47 47 43 40 39 37 34 33 33 32 30 28 26 24 24 24 23 22 22 23 22 22 22 25 27 30
54 54 54 53 52 49 50 48 46 42 38 36 34 33 33 32 30 26 23 21 20 20 22 20 19 18 18 20 20 20 21 22 24
60 60 59 58 56 54 50 49 45 38 33 34 35 32 29 26 24 21 19 19 17 17 17 17 17 18 19 20 21 21 22 22 23
62 63 62 59 57 55 53 48 38 34 33 31 31 28 25 23 20 19 17 17 17 18 18 17 17 17 17 18 18 18 17 17 17
65 65 65 60 59 58 51 37 35 33 32 27 26 25 23 21 19 18 17 17 18 17 16 17 18 17 17 17 17 16 16 16 16
72 70 66 61 60 56 38 36 36 34 29 23 24 23 21 19 19 19 19 20 19 18 19 19 18 18 17 17 17 17 17 17 17
75 73 70 65 56 41 39 39 38 34 27 21 19 19 19 19 20 20 21 20 19 19 19 20 20 19 19 19 19 19 19 18 18
81 79 73 66 47 41 42 43 39 35 30 25 22 20 20 20 20 21 21 21 20 20 20 20 20 19 19 19 19 19 19 20 20
88 85 78 60 45 44 46 44 42 38 33 29 25 21 18 18 21 22 21 21 22 22 21 21 21 20 20 20 21 22 22 21 20
85 83 73 54 47 49 48 48 47 44 39 33 27 23 21 21 22 22 22 23 23 24 23 23 21 21 22 23 23 22 20 19 17
82 69 69 50 49 50 51 51 49 47 44 37 29 23 23 23 23 24 24 25 26 24 23 23 24 24 23 22 21 20 18 17 16
84 67 55 48 50 51 52 52 51 50 45 38 30 27 27 26 25 28 29 27 26 27 29 27 25 23 22 21 19 17 17 16 18
57 57 48 49 51 52 54 54 55 53 48 39 32 30 28 29 28 26 27 31 34 32 30 28 25 25 24 22 22 21 22 24 24

GFSFLT1_prec_cthk_033.txt.gz
RH
28 26 24 23 22 20 19 19 20 21 22 22 23 24 26 30 38 39 38 36 34 33 30 27 27 28 31 36 31 27 26 20 27
29 27 26 27 28 28 29 29 30 31 33 34 35 35 36 37 45 44 43 40 35 33 32 30 30 30 28 26 26 28 29 26 22
34 30 27 26 27 29 30 31 32 33 33 33 34 34 34 34 40 45 41 37 36 36 38 37 39 43 43 36 34 35 35 32 29
39 38 33 31 33 34 35 36 36 39 41 41 41 39 37 36 43 41 42 36 37 39 44 45 41 46 51 54 58 58 55 54 50
45 41 36 34 36 36 37 38 40 42 41 40 38 38 36 40 41 41 35 35 35 35 34 35 35 37 42 44 46 53 56 58 63
49 42 39 39 40 40 41 42 43 42 41 37 37 36 35 36 36 36 32 33 32 31 31 30 29 31 32 33 33 36 42 47 51
51 44 40 43 42 43 45 46 44 42 41 39 35 35 33 34 33 31 31 31 30 27 26 22 23 24 24 24 23 25 25 26 27
50 47 45 47 48 49 47 47 45 44 41 38 35 31 31 32 32 31 30 28 26 25 23 21 21 21 21 21 20 19 20 22 23
57 59 60 60 55 52 50 49 47 45 39 34 32 31 32 32 30 28 24 22 21 20 19 17 17 16 16 16 16 16 17 18 20
64 65 61 58 58 56 54 53 50 42 35 32 31 29 28 28 26 26 22 20 19 18 16 16 16 16 16 17 17 17 17 17 18
70 66 64 62 61 59 55 53 45 36 33 32 31 28 25 22 23 23 22 20 18 17 17 17 16 15 15 16 16 16 16 16 16
71 69 68 65 63 62 57 49 39 36 34 33 30 26 20 20 21 22 22 19 19 18 18 18 17 16 16 17 17 17 17 17 17
68 72 71 67 67 64 56 42 40 38 36 33 29 25 19 18 19 20 21 21 21 19 19 19 17 17 18 18 18 18 18 18 19
63 69 74 75 71 64 49 44 42 40 37 34 30 26 22 22 22 22 22 20 19 19 19 18 17 18 19 19 19 19 19 20 19
62 65 69 77 74 60 51 48 46 43 41 39 35 29 24 24 23 24 22 20 20 21 20 19 19 19 20 20 20 20 19 19 19
60 65 70 79 75 60 52 52 47 47 47 44 41 35 29 26 26 24 22 20 22 21 21 20 20 20 20 20 19 19 20 21 21
69 78 80 82 73 60 55 54 51 50 49 46 42 38 33 32 28 26 22 22 23 23 23 23 22 21 20 21 22 22 21 20 20
82 85 82 74 72 58 57 54 52 50 50 49 46 40 37 33 29 27 27 26 26 25 24 23 24 26 25 24 23 22 21 20 19
81 89 85 79 71 55 53 51 52 53 52 51 49 44 39 36 33 31 30 30 29 29 31 31 28 26 24 24 23 22 20 19 23
85 82 85 77 56 49 51 53 56 57 57 55 51 47 42 40 37 34 31 31 32 32 31 30 29 27 26 25 24 25 26 27 25

GFSFLT1_prec_cthk_036.txt.gz
RH
23 22 23 23 21 20 19 19 20 19 22 23 24 26 29 33 37 38 38 37 37 36 35 33 31 30 29 31 33 28 28 28 24
26 24 23 25 26 27 27 28 29 31 32 33 34 34 35 36 40 40 39 39 34 32 31 32 34 37 36 31 29 30 27 27 23
29 28 26 26 25 25 26 28 29 30 32 33 35 35 36 37 40 40 40 40 36 37 37 42 41 42 44 49 51 44 38 38 36
35 33 31 30 31 32 33 34 35 37 39 39 38 38 37 39 41 37 37 35 34 33 35 39 40 40 40 45 50 52 54 56 59
42 39 36 33 35 35 36 36 38 39 39 38 37 36 36 37 37 34 34 32 31 29 30 31 33 32 31 33 39 40 44 49 52
45 42 39 38 39 39 40 41 41 41 39 36 35 34 33 34 32 31 31 29 30 30 29 28 26 24 24 26 27 27 27 29 36
48 49 44 42 42 43 43 43 43 41 39 37 35 32 31 32 30 29 29 28 28 28 26 24 23 22 22 21 20 20 20 21 22
50 50 49 49 48 47 46 46 45 45 43 38 34 30 30 30 30 30 29 28 26 27 22 21 20 19 17 16 15 14 14 15 15
51 52 56 57 56 54 53 49 47 46 42 35 33 31 29 28 27 26 26 25 24 23 21 19 18 16 16 16 15 14 15 16 16
52 57 63 61 61 60 56 54 52 47 39 36 32 31 29 27 25 23 20 21 21 21 21 19 18 17 16 15 14 13 14 14 14
56 61 63 64 63 62 61 58 54 42 38 35 33 31 29 26 23 20 18 18 20 21 20 20 19 17 16 16 15 14 14 14 14
59 61 63 65 66 65 63 61 52 43 40 37 34 32 28 26 23 21 17 19 20 20 20 20 19 17 17 17 16 16 15 16 16
61 61 60 59 63 67 66 60 50 47 43 39 35 32 29 27 25 23 22 22 22 22 22 20 17 17 18 18 17 17 17 18 18
58 57 58 61 63 64 63 55 53 52 48 43 40 37 34 32 29 26 23 23 23 23 21 20 18 19 19 19 18 18 18 18 19
55 54 55 57 61 63 52 52 56 55 51 49 46 42 39 35 32 30 27 25 24 23 22 20 20 20 19 19 19 19 19 19 18
67 70 73 66 61 64 58 52 56 57 54 52 49 45 43 40 36 32 30 28 27 26 24 23 23 22 22 21 20 19 19 21 22
67 68 71 78 72 64 66 62 58 58 57 54 50 47 45 43 41 38 36 33 30 29 27 27 25 24 22 22 24 24 23 23 22
68 72 78 83 84 78 73 63 59 59 57 54 51 47 46 43 42 40 39 36 34 31 30 28 26 26 26 26 24 24 23 22 23
71 74 81 85 81 74 75 64 59 54 51 52 52 51 49 45 43 42 39 36 33 31 30 29 29 28 26 24 23 23 23 24 26
75 76 79 84 85 80 79 61 57 55 56 55 54 53 51 48 46 42 40 38 33 30 29 29 28 26 26 26 26 25 24 26 27

GFSFLT1_prec_cthk_039.txt.gz
RH
19 19 20 20 20 20 20 21 23 19 21 23 25 28 32 35 40 41 41 38 37 35 36 33 33 31 28 28 28 26 23 25 24
21 21 21 21 22 24 25 27 28 30 32 32 32 32 34 35 39 37 37 38 35 33 33 34 40 41 44 43 37 33 31 27 27
25 23 24 25 25 24 25 26 28 29 30 33 35 36 36 39 41 40 38 34 34 36 37 37 41 42 41 44 50 55 54 48 46
31 28 26 28 29 30 30 31 33 35 35 35 35 37 38 36 35 35 35 35 32 31 31 33 36 36 36 37 42 45 47 49 53
39 35 32 32 33 33 34 35 36 37 36 35 36 36 35 34 34 34 33 31 28 29 30 30 29 29 28 29 27 29 35 38 43
44 43 39 37 38 38 39 39 39 38 37 36 35 34 34 33 33 32 32 29 28 29 27 27 27 27 24 23 22 23 23 23 24
47 47 44 45 43 43 42 41 41 40 40 39 37 33 32 30 30 30 30 29 29 32 26 25 24 24 22 21 19 18 17 17 16
46 48 49 49 50 50 49 47 46 45 44 42 36 33 31 30 30 28 27 26 27 29 24 23 22 21 20 18 16 16 15 15 14
49 47 46 51 54 55 57 55 53 51 47 39 36 34 32 31 29 27 25 24 23 22 22 22 21 21 20 18 16 14 14 13 12
50 49 50 52 54 57 57 58 58 56 47 40 37 35 32 31 28 26 24 22 21 19 18 20 22 21 19 18 17 15 15 15 13
49 51 52 54 54 56 56 57 58 54 46 43 40 36 33 29 28 26 25 23 21 18 19 20 21 20 20 19 17 15 16 16 15
55 56 55 56 55 53 54 56 58 49 46 46 44 39 34 31 30 28 26 25 23 22 22 21 21 21 20 18 16 17 18 18 17
58 58 59 58 55 54 55 54 52 46 47 49 47 45 41 38 34 32 30 28 27 24 23 23 23 22 21 20 19 19 20 19 18
59 59 59 55 51 51 51 50 44 42 44 48 52 49 46 42 40 37 34 32 31 28 26 24 23 22 21 21 20 20 20 19 18
57 57 60 58 59 65 67 56 44 45 45 46 51 53 49 47 44 41 39 37 34 31 29 27 26 25 25 25 23 22 22 21 20
61 62 63 66 67 65 66 62 56 53 51 55 54 55 54 52 48 45 43 41 38 36 35 32 29 28 28 27 26 25 23 21 22
64 67 69 68 65 70 74 72 71 67 63 58 57 57 56 53 49 45 42 41 39 38 36 34 31 29 27 26 25 24 24 24 24
61 68 72 69 71 76 79 74 70 66 65 64 61 57 52 49 46 44 43 42 41 40 37 34 31 28 27 26 25 24 24 23 27
66 68 72 71 73 79 80 74 76 73 67 64 60 59 54 50 46 45 43 43 41 38 36 32 30 28 27 25 25 24 24 26 30
64 65 68 73 77 82 79 78 76 79 69 61 58 56 55 54 50 47 46 46 44 40 36 33 29 26 26 26 27 27 28 29 28

GFSFLT1_prec_cthk_042.txt.gz
RH
17 16 17 19 22 22 27 30 28 21 21 23 27 32 34 35 34 36 35 34 38 32 30 30 33 37 35 30 29 28 26 25 25
20 19 19 19 19 20 23 25 26 30 31 32 33 32 31 31 33 36 39 40 36 40 38 40 45 44 46 47 45 44 40 34 32
25 25 24 23 24 24 25 26 28 29 31 33 34 35 36 36 34 36 35 36 34 36 35 37 43 46 45 44 52 54 56 56 53
30 32 30 29 29 29 31 31 33 33 35 35 35 34 36 36 36 36 36 38 32 32 34 34 34 37 35 34 38 43 46 48 50
33 35 35 35 34 34 36 36 37 37 37 36 36 35 35 34 34 36 35 34 31 32 31 29 29 28 27 27 28 27 27 31 37
38 39 39 41 40 39 39 40 40 39 38 37 35 35 34 33 34 34 33 33 32 30 29 28 28 26 24 24 24 22 22 23 23
44 42 42 46 46 47 46 46 45 42 41 41 39 36 35 34 33 32 31 31 31 31 27 26 26 25 23 21 20 19 18 17 16
47 46 42 43 48 51 51 52 53 51 48 45 40 37 35 33 33 32 31 29 32 30 25 23 24 24 23 21 21 20 18 16 15
47 49 47 43 46 49 52 54 54 55 55 49 42 39 36 35 33 32 30 28 28 26 24 22 20 21 22 22 21 19 17 16 14
49 51 48 47 48 50 51 53 54 54 54 47 43 43 40 35 32 30 28 26 25 25 24 22 20 18 20 21 22 20 18 17 16
50 54 54 56 55 54 54 55 54 55 51 45 44 43 42 38 34 31 29 29 29 28 26 24 23 21 20 20 20 19 19 17 15
52 52 57 57 57 56 55 53 53 52 43 42 44 43 44 43 41 37 34 33 31 29 28 27 25 24 23 22 21 21 20 19 18
54 53 56 58 58 57 54 51 48 45 36 40 41 40 44 47 47 43 40 38 38 36 32 30 29 27 24 23 22 22 21 21 20
57 59 58 58 56 55 56 55 60 55 49 45 42 42 41 42 47 48 46 45 43 41 38 36 34 31 29 27 26 24 23 22 22
54 57 58 59 60 61 64 67 64 51 52 53 51 46 45 49 50 51 51 50 47 44 42 39 37 35 33 31 30 27 26 25 25
54 56 59 63 66 68 68 67 66 61 60 63 65 60 57 55 55 55 53 48 44 41 39 38 36 35 33 32 29 28 28 26 25
67 62 61 65 69 72 71 71 72 68 68 68 67 63 63 62 61 57 51 47 45 42 40 40 38 36 33 31 29 26 25 24 24
70 68 66 65 70 73 74 72 72 71 71 70 68 67 64 63 61 58 51 48 46 43 41 39 37 34 31 28 26 25 24 24 26
72 70 69 70 74 75 75 75 73 75 70 74 71 72 66 61 56 55 53 51 48 46 45 43 41 38 33 30 28 27 25 25 30
74 76 74 72 74 75 76 77 76 75 72 75 76 73 62 59 60 59 57 54 53 51 48 45 42 36 32 29 27 25 26 28 32

GFSFLT1_prec_cthk_045.txt.gz
RH
16 15 16 20 25 29 32 32 29 23 22 24 28 32 35 35 34 32 31 33 35 36 30 32 38 44 41 36 32 31 30 27 28
22 19 17 18 20 21 25 28 26 28 30 30 31 31 32 32 34 36 35 38 43 43 40 44 45 44 47 52 50 53 54 48 40
27 26 24 23 22 22 23 25 27 29 30 31 32 34 35 35 35 35 35 38 34 34 32 37 42 42 44 45 49 53 56 56 57
30 30 30 31 30 29 30 31 33 34 34 34 35 35 36 36 35 36 36 36 33 33 38 35 34 32 33 34 36 38 43 47 50
31 33 34 36 36 36 35 35 36 38 38 37 38 38 38 36 35 35 36 34 33 33 34 32 29 27 26 26 26 27 28 28 32
35 34 37 40 42 43 43 42 42 42 40 40 39 39 37 37 37 37 37 35 36 32 31 30 30 27 25 24 23 23 23 22 23
41 41 39 39 42 46 48 49 48 47 46 45 43 41 38 37 37 36 35 34 38 32 30 28 27 25 24 24 22 21 20 19 19
46 46 43 44 44 44 46 50 52 52 52 52 49 44 40 37 35 35 33 34 36 32 29 26 25 24 22 21 21 21 20 20 19
48 49 47 46 47 48 48 49 50 50 52 52 47 45 44 43 39 36 32 32 35 30 27 25 25 25 23 20 19 20 21 21 21
50 52 52 51 50 52 52 51 51 51 50 50 44 42 42 42 39 37 35 31 30 29 28 27 27 27 25 23 21 18 18 20 20
50 53 55 52 54 58 58 55 53 51 50 46 39 37 38 40 40 38 38 37 35 33 31 30 29 29 27 26 24 22 21 20 20
48 55 56 55 57 61 58 55 55 53 50 40 35 35 36 37 37 38 40 42 41 39 37 36 36 34 31 30 28 26 23 23 22
48 54 56 57 62 64 60 57 55 54 52 45 46 47 45 42 39 36 36 37 44 45 44 42 41 40 38 36 33 32 30 28 25
50 53 54 58 64 64 60 58 59 62 60 49 46 47 47 47 45 42 41 44 47 47 47 46 43 41 38 37 35 34 32 31 30
55 55 54 56 61 65 65 64 66 66 57 52 54 56 57 54 53 53 53 53 52 51 47 43 40 37 35 33 32 31 30 29 29
59 61 59 57 59 62 66 68 70 70 62 59 59 60 61 58 55 58 59 58 57 53 48 42 39 37 36 35 34 31 29 28 28
58 64 65 67 67 67 66 68 70 70 68 64 61 62 63 63 62 63 60 59 57 53 48 46 43 41 40 39 37 34 30 27 26
66 72 73 76 74 73 71 70 73 74 70 63 65 65 66 63 63 65 62 57 54 52 51 48 46 45 44 42 40 37 33 29 27
68 73 82 82 80 78 81 85 82 79 76 68 68 67 68 68 69 66 59 57 58 57 53 51 50 48 47 43 40 38 33 29 32
63 67 81 83 84 84 86 88 85 80 78 73 70 70 70 72 71 65 60 59 59 58 56 54 52 50 47 44 40 36 32 29 29

GFSFLT1_prec_cthk_048.txt.gz
RH
20 18 21 22 23 28 31 30 29 24 23 25 28 32 34 33 33 30 30 33 39 41 35 42 47 46 44 40 39 36 35 32 28
23 21 20 23 26 27 28 29 26 25 26 28 30 32 32 32 32 32 35 39 48 43 43 44 44 44 47 48 49 56 56 54 51
26 26 25 26 26 24 26 25 27 29 30 31 33 34 34 34 34 34 34 38 35 32 32 37 41 41 41 41 42 46 51 53 56
27 28 29 29 30 30 30 32 33 35 36 37 37 36 37 37 36 35 35 35 36 34 35 35 34 33 31 30 31 32 36 42 48
32 31 32 34 36 38 38 37 37 37 38 38 39 40 40 39 37 37 37 37 36 34 34 32 31 29 28 27 25 25 25 26 28
34 35 36 35 38 40 43 45 45 44 43 42 42 41 40 39 38 38 37 38 36 33 32 31 29 26 25 24 23 24 23 22 22
37 37 39 41 42 42 42 44 47 49 49 48 47 45 43 41 39 37 36 37 36 30 29 29 29 27 24 23 22 21 21 21 21
42 42 41 43 45 46 46 46 46 46 48 49 49 46 43 41 41 40 38 39 35 30 28 28 27 25 24 22 23 22 19 18 19
47 48 47 47 48 50 50 51 50 49 48 49 47 41 39 37 37 36 35 35 35 32 29 28 28 27 25 25 26 25 22 21 18
49 50 51 49 50 51 54 54 56 53 51 49 45 39 36 35 32 32 33 33 34 34 34 32 30 28 28 28 28 27 25 24 22
46 48 50 52 52 51 56 57 58 56 53 52 46 38 35 33 32 32 32 32 32 35 36 36 36 35 35 35 34 32 29 28 26
44 45 48 51 52 52 57 59 60 58 55 53 45 40 42 42 42 40 38 36 34 34 35 39 41 42 41 40 39 39 38 35 33
45 46 50 54 53 54 59 62 60 57 55 56 50 48 45 44 43 41 41 40 39 40 41 40 43 44 44 43 41 40 38 36 35
47 49 51 56 55 55 59 61 59 60 59 61 52 47 47 49 49 48 46 46 46 48 50 49 49 45 42 40 37 36 34 32 31
51 52 53 59 58 56 58 59 60 60 63 62 54 53 54 55 55 52 49 48 51 53 53 54 51 48 43 40 37 35 33 31 30
56 56 61 65 61 59 62 63 62 62 64 65 57 56 57 58 55 54 52 54 56 55 55 54 51 46 45 44 43 42 40 37 35
68 62 65 69 69 65 69 72 73 70 67 66 62 58 59 61 60 59 56 57 56 55 54 52 51 51 49 47 46 45 43 40 38
70 71 71 74 76 74 77 81 84 81 78 74 69 65 62 62 62 61 59 61 61 59 55 54 54 54 52 50 49 48 46 43 39
61 69 75 81 81 82 82 84 87 92 93 93 88 80 70 65 66 62 64 65 63 58 54 54 55 55 52 51 48 48 46 43 41
65 75 76 75 75 76 82 85 86 89 93 93 93 85 79 70 62 69 64 68 65 59 57 55 55 55 53 51 49 49 47 43 40

GFSFLT1_prec_cthk_051.txt.gz
RH
22 27 27 30 31 35 36 32 27 23 23 24 28 30 31 31 31 31 33 37 43 42 45 50 46 44 44 43 41 40 42 42 30
22 24 27 25 26 28 29 27 24 22 24 26 29 31 31 31 31 33 36 43 47 44 45 47 42 45 47 48 49 53 53 51 52
24 24 26 28 29 30 31 29 27 28 29 30 31 32 32 32 31 32 36 36 38 35 32 34 39 41 41 41 42 44 48 49 54
25 26 27 28 29 30 31 31 32 33 34 34 34 34 35 35 34 33 34 37 36 35 34 33 32 32 30 31 34 34 34 39 44
30 29 28 30 33 35 37 38 40 40 39 37 37 38 38 38 37 37 36 38 36 34 34 32 30 29 28 27 27 26 26 27 28
33 33 33 34 34 35 38 41 43 45 44 43 42 42 41 41 39 39 39 38 35 34 33 31 28 27 26 25 24 22 22 21 22
36 36 37 38 39 40 41 40 40 41 42 43 44 43 42 41 40 40 39 39 33 32 29 29 27 26 25 24 24 22 22 21 20
38 38 40 40 41 43 43 44 45 44 43 43 44 42 38 36 35 35 35 39 32 29 28 27 26 26 26 25 24 23 23 23 22
42 41 41 43 44 46 47 47 48 49 49 47 46 41 36 34 33 32 30 32 31 31 29 30 31 29 27 27 26 25 26 26 25
45 46 47 46 45 46 49 50 52 53 52 50 47 42 37 34 32 30 30 30 31 31 30 32 33 33 33 32 31 31 31 30 29
45 46 48 49 46 47 50 51 53 53 53 51 49 43 38 35 36 35 36 35 35 34 32 33 35 36 38 38 38 38 38 37 37
45 45 46 48 49 48 50 52 54 55 56 53 50 46 42 43 42 40 39 37 36 36 36 36 38 40 38 40 42 42 42 41 39
50 46 44 47 49 49 49 53 55 57 57 53 52 51 45 45 42 42 42 41 41 40 41 42 44 46 46 46 45 42 40 38 36
53 51 48 48 50 52 51 53 57 59 57 56 57 55 47 46 47 48 47 44 41 42 43 46 48 48 50 49 47 43 40 37 34
57 57 54 53 52 53 54 55 61 61 59 60 61 58 50 49 50 51 50 46 45 46 47 50 51 51 50 48 46 44 43 42 42
61 62 61 57 56 56 59 61 64 67 66 65 67 66 56 54 54 55 54 51 51 51 51 52 52 51 49 46 47 47 45 44 43
60 67 69 68 64 62 64 67 70 75 77 75 77 70 64 59 58 60 58 55 53 52 53 53 53 51 48 47 47 47 47 44 43
58 67 73 75 74 70 70 73 77 80 83 84 85 81 74 72 66 64 63 59 57 55 58 60 59 54 50 48 47 48 47 45 43
51 62 68 74 77 77 76 79 82 85 86 88 89 91 92 89 82 77 72 68 61 60 59 60 63 59 56 52 50 50 49 48 46
44 55 60 62 65 68 77 84 85 86 87 88 90 91 91 90 91 82 84 76 71 70 61 66 73 67 61 57 56 54 51 49 48

GFSFLT1_prec_cthk_054.txt.gz
RH
27 31 34 34 39 41 39 36 29 23 24 26 28 30 29 29 32 33 36 44 44 43 48 55 45 45 45 48 49 47 49 44 32
22 29 31 33 33 36 34 28 24 22 24 26 28 28 29 32 34 38 41 43 45 45 45 46 43 46 47 49 52 53 53 52 51
22 26 29 30 31 32 30 29 26 28 30 31 32 32 31 34 34 36 41 40 42 39 33 34 40 42 42 43 44 47 52 53 52
24 26 30 31 33 33 32 30 31 32 34 35 35 34 34 40 39 39 44 43 40 39 36 36 35 34 33 32 33 35 37 41 46
28 27 28 29 31 33 35 37 39 40 40 39 39 39 39 41 40 42 42 41 38 39 36 33 31 30 28 28 28 27 28 28 28
31 31 30 30 32 33 35 36 39 41 41 42 43 43 45 45 44 44 39 37 35 32 31 29 28 27 25 25 25 24 23 22 23
37 33 33 36 41 41 42 39 39 39 38 39 39 42 39 42 43 44 39 36 34 32 28 26 25 24 23 23 23 23 22 22 21
36 37 37 41 43 44 44 42 42 43 43 42 41 40 38 39 39 36 35 36 31 29 28 27 27 27 26 26 25 25 25 24 23
44 43 43 45 46 48 47 49 46 45 44 45 47 44 38 36 34 35 31 32 29 28 27 28 28 29 30 30 28 27 26 26 26
47 47 45 46 48 48 48 46 48 47 47 48 47 45 39 35 34 36 31 33 33 32 32 31 30 30 32 35 36 35 34 34 34
48 49 49 48 48 50 48 45 47 50 49 50 49 48 42 36 36 41 42 38 36 35 33 33 33 34 34 36 37 38 38 38 38
49 51 52 50 50 49 46 46 46 49 50 51 51 50 44 38 40 41 47 39 38 36 36 36 37 39 40 41 42 42 42 41 40
54 53 55 53 53 50 46 46 46 48 51 53 53 51 48 41 41 41 40 40 43 40 39 39 40 40 43 44 44 46 44 44 42
58 55 58 54 55 55 51 49 48 49 52 54 53 52 53 44 43 42 43 44 44 44 40 42 42 43 46 47 47 48 47 45 44
57 57 56 59 56 55 55 55 54 52 55 59 57 55 56 50 47 47 47 48 48 46 43 44 46 46 48 49 48 47 45 42 43
57 54 60 62 62 61 61 60 59 57 60 66 63 63 64 63 56 55 52 51 52 53 49 48 48 48 48 48 47 46 44 44 43
55 57 57 60 66 65 64 66 66 65 64 70 71 70 70 72 69 65 61 58 57 57 55 52 50 51 52 54 52 49 46 44 44
46 49 55 57 62 67 67 70 73 74 72 73 77 80 76 76 76 76 74 74 68 62 61 60 58 54 54 53 57 53 52 48 46
48 48 57 53 56 66 70 72 76 80 78 78 82 83 80 79 81 83 86 82 79 76 77 71 68 67 64 57 60 64 61 54 50
39 48 51 58 58 62 65 74 78 80 83 80 84 86 86 86 87 85 83 84 89 83 81 75 76 69 72 72 62 60 59 59 54

GFSFLT1_prec_cthk_057.txt.gz
RH
26 29 30 31 36 39 39 35 27 22 23 26 29 29 30 32 39 40 42 43 45 49 49 46 44 48 48 53 55 56 54 46 37
24 27 29 31 36 34 34 30 23 21 23 26 27 29 30 36 41 43 44 46 47 45 44 46 43 46 48 50 50 53 55 56 59
21 25 28 29 32 33 31 26 23 25 27 29 30 31 32 40 40 42 41 43 41 38 34 34 37 43 43 43 43 46 50 54 56
22 25 29 30 31 31 30 28 28 29 31 31 32 32 35 42 41 43 40 38 36 33 32 33 34 33 32 32 31 33 36 39 46
26 27 28 28 29 31 32 33 36 37 38 38 38 38 40 47 42 47 41 40 37 33 29 28 28 27 27 26 25 25 27 27 28
29 30 29 28 28 29 30 32 34 36 37 38 39 40 45 47 48 47 39 37 36 33 30 27 26 24 23 22 22 21 21 22 22
37 32 30 30 31 33 36 36 38 39 38 37 36 38 40 41 41 41 35 33 32 30 27 26 25 23 22 23 22 22 22 22 22
41 36 33 32 34 38 39 39 40 41 43 43 44 44 42 40 38 37 32 30 30 27 25 24 25 26 25 25 26 26 25 24 24
45 41 37 40 40 41 44 46 45 45 44 45 45 44 44 39 37 36 32 30 29 27 26 26 27 28 28 28 28 29 29 30 29
46 44 42 44 47 44 47 49 47 45 45 46 46 46 44 40 38 35 35 31 32 32 32 31 30 29 29 29 31 32 32 33 35
53 51 50 49 49 50 47 44 45 45 44 46 48 47 46 44 38 37 39 36 36 36 33 32 31 31 32 33 34 36 36 37 37
61 58 54 54 53 54 53 49 46 43 42 44 48 49 48 47 40 39 42 40 37 36 35 34 34 35 35 36 37 39 40 40 41
63 63 60 58 59 59 58 56 52 48 45 45 47 50 50 49 43 41 42 43 39 38 37 36 37 37 37 38 39 42 44 44 45
61 63 63 62 63 61 60 59 55 53 50 48 48 51 52 51 47 43 43 43 43 43 42 40 39 38 40 42 41 44 45 46 47
54 59 62 63 66 63 62 60 59 57 55 55 52 53 54 55 53 47 47 48 49 47 46 43 43 42 41 44 45 45 45 44 44
49 51 56 58 60 63 65 65 64 63 63 62 58 58 58 59 59 58 56 57 58 56 53 50 47 48 45 44 46 48 50 50 49
46 48 49 56 59 64 66 70 68 66 68 67 67 66 65 64 66 69 66 63 65 66 65 66 60 52 52 50 49 51 51 51 54
45 47 50 50 56 60 63 67 69 68 69 73 74 74 71 70 70 73 77 73 71 71 73 75 72 65 62 64 63 60 60 56 55
40 49 55 57 61 63 64 65 68 75 72 76 77 79 77 78 75 77 78 78 77 76 77 76 73 74 74 69 67 70 65 68 66
34 38 44 51 57 60 71 71 70 71 77 77 83 87 85 83 80 80 82 81 81 80 78 79 79 77 76 72 73 72 71 75 74

GFSFLT1_prec_cthk_060.txt.gz
RH
27 29 28 32 34 36 33 30 20 19 22 25 27 28 31 37 38 41 43 44 54 50 42 43 48 45 49 56 53 52 50 44 40
24 26 27 30 31 32 30 26 19 20 22 24 25 27 31 37 37 38 44 45 44 40 39 39 39 41 44 46 46 49 53 57 57
21 25 26 27 30 30 30 24 21 23 25 26 27 29 33 37 39 37 37 39 38 37 34 32 34 40 41 40 40 42 46 51 52
20 24 26 29 30 30 28 27 27 28 28 29 30 32 36 41 39 39 36 36 34 31 29 29 30 30 29 28 28 29 32 36 39
23 24 26 27 28 27 27 27 29 32 34 34 34 37 40 40 38 40 40 37 35 30 28 27 25 24 23 22 22 22 23 24 25
27 26 28 29 28 28 27 28 30 31 31 31 32 34 38 41 40 38 37 33 31 28 26 24 23 22 22 20 19 19 19 19 20
31 32 31 29 28 28 30 31 33 33 34 34 35 37 38 39 36 35 34 29 28 27 24 23 22 22 22 22 22 21 22 22 22
39 37 36 32 29 30 31 34 35 36 37 38 38 40 41 40 38 36 33 28 28 26 24 23 22 22 23 24 25 25 25 25 25
43 41 40 36 34 31 33 34 36 37 40 42 42 42 41 42 40 38 34 29 28 26 26 27 25 27 26 26 25 25 25 27 28
44 44 47 41 40 41 37 42 43 40 39 41 41 42 42 41 39 37 36 33 31 31 31 30 28 28 28 28 28 29 29 31 32
46 46 49 54 53 49 48 48 49 47 42 42 42 43 43 42 39 37 37 35 33 34 33 31 30 30 30 31 32 32 32 34 35
48 49 50 52 57 59 55 55 54 53 50 47 45 45 45 44 41 39 37 37 36 35 35 32 32 32 33 34 34 35 35 37 38
47 49 51 54 57 59 59 59 58 58 56 52 49 48 49 48 46 43 40 37 38 38 38 37 35 35 35 35 36 37 38 39 40
41 46 49 53 56 59 61 65 66 66 64 59 53 52 52 55 53 49 44 42 41 40 41 43 41 39 38 38 38 38 41 42 43
42 43 46 48 52 56 59 60 62 65 64 62 59 57 57 60 59 55 52 48 47 47 51 53 52 48 44 43 43 42 42 44 44
42 43 45 47 52 55 58 61 60 60 63 65 65 62 62 62 65 63 61 56 54 54 58 60 61 60 58 57 52 48 46 45 47
45 46 46 44 55 59 62 61 62 64 68 67 69 66 64 65 68 70 71 69 65 61 65 68 67 67 67 69 66 59 57 57 57
43 49 55 55 56 58 59 60 59 64 68 71 73 74 69 69 71 73 76 78 76 74 70 72 73 71 72 72 71 66 65 69 69
33 45 50 55 56 60 64 65 63 67 68 71 70 75 75 77 74 76 77 81 81 82 80 79 78 74 74 76 75 73 72 73 72
34 34 36 42 47 52 59 66 70 70 69 71 78 77 82 83 85 83 82 85 87 87 87 86 85 84 76 73 77 78 77 75 73

GFSFLT1_prec_cthk_063.txt.gz
RH
24 25 29 31 31 29 27 20 16 18 20 22 25 27 28 31 35 36 42 45 44 40 44 43 41 44 51 45 46 48 47 44 42
24 23 27 30 28 26 26 20 19 20 21 23 26 27 27 32 33 36 40 42 41 38 37 35 36 38 41 42 45 51 54 54 55
23 25 26 28 28 28 28 21 20 22 23 24 26 28 29 29 30 32 36 36 36 34 31 29 29 33 36 36 35 38 42 47 49
21 22 25 27 30 31 28 25 26 27 28 29 31 33 33 34 34 34 34 33 32 29 27 27 27 26 26 25 26 27 30 32 35
23 23 24 25 26 27 25 24 25 26 27 28 30 33 35 36 35 35 34 33 31 27 25 24 23 22 21 20 20 20 21 21 23
25 26 30 29 28 26 26 26 27 28 29 29 31 33 33 32 33 31 31 29 27 25 23 21 20 20 19 19 20 20 20 20 20
31 31 33 34 36 31 27 27 29 30 31 32 34 35 36 36 37 35 32 30 26 24 22 21 20 19 19 20 21 23 23 23 22
37 36 35 36 35 33 32 29 29 31 33 34 36 38 39 39 37 36 35 32 26 25 23 22 21 22 22 23 24 24 24 24 23
42 40 39 39 40 40 37 37 34 35 36 36 36 39 39 39 39 38 37 35 29 27 27 27 26 25 25 25 25 26 25 26 26
43 42 40 40 41 45 47 45 41 40 39 42 41 40 41 40 39 39 40 36 33 30 29 29 28 27 26 27 28 29 30 30 30
45 44 43 42 43 44 48 53 55 52 49 46 46 45 44 43 42 41 40 39 36 34 32 32 30 28 28 29 30 31 32 32 32
44 46 44 43 44 44 47 51 55 57 57 55 51 50 49 47 48 47 44 42 40 36 34 35 34 33 33 33 32 33 35 35 35
38 38 40 42 44 46 48 51 53 57 57 58 58 57 55 52 50 50 50 48 45 41 38 37 36 37 37 40 36 36 36 36 37
39 37 38 40 42 45 50 52 53 55 56 58 59 60 58 56 53 54 56 56 52 46 44 44 44 45 46 46 45 41 38 40 41
43 43 41 43 45 46 49 50 52 55 57 59 60 59 57 55 57 57 59 63 61 56 50 50 51 52 55 56 54 52 50 46 46
45 47 46 48 51 51 54 56 58 62 68 70 68 65 62 58 60 62 63 64 68 68 62 57 57 60 63 64 65 64 67 68 57
46 45 47 50 52 57 58 61 63 66 69 73 76 74 71 67 69 69 70 70 69 74 76 74 68 66 67 70 70 71 73 71 67
33 39 40 44 51 51 56 57 62 66 69 72 76 76 70 72 73 71 73 75 77 76 80 83 82 77 75 74 73 77 74 74 74
27 31 36 44 49 56 53 57 63 66 62 69 74 77 75 74 72 75 75 78 83 85 84 85 86 84 81 81 79 79 79 76 74
36 35 36 37 40 42 47 52 56 60 64 66 70 82 82 81 81 80 83 82 84 90 91 87 87 91 86 86 84 83 84 84 80

GFSFLT1_prec_cthk_066.txt.gz
RH
22 26 30 30 29 24 20 15 16 18 19 23 25 25 26 27 30 34 37 40 38 40 36 36 35 42 40 40 42 45 43 41 46
20 24 25 27 26 25 22 18 20 21 22 24 24 25 26 29 31 34 37 37 35 33 31 31 31 32 37 39 42 48 51 51 52
21 24 26 28 28 27 25 22 23 24 25 27 28 29 29 30 31 35 36 36 35 32 27 26 25 28 32 32 32 35 39 44 45
25 25 26 27 27 27 24 22 23 24 25 27 30 30 32 32 32 32 32 33 31 29 26 25 24 24 24 23 23 24 26 29 33
26 29 32 32 31 28 25 23 24 24 25 26 27 28 29 30 30 29 29 27 26 24 22 21 20 19 19 18 19 20 20 22 24
26 28 31 34 34 34 32 26 26 26 27 28 30 31 31 31 31 32 31 30 26 24 22 20 19 18 18 18 18 18 19 21 22
31 32 32 33 34 35 35 34 32 29 29 30 32 34 34 34 35 35 34 33 30 26 23 21 20 19 19 19 20 21 21 21 21
35 36 37 36 38 38 39 38 39 39 35 33 35 36 35 37 37 37 37 35 32 29 26 25 24 24 23 23 22 23 23 23 22
41 41 39 38 38 38 40 42 45 46 43 40 39 40 40 39 39 39 38 36 36 33 29 28 28 27 26 25 24 25 26 25 26
42 43 41 39 39 39 38 40 43 47 50 51 47 44 44 45 45 45 43 41 38 36 33 31 30 30 28 27 27 28 29 29 29
42 44 44 44 42 42 40 40 41 44 47 51 53 53 50 49 49 49 48 47 44 39 38 33 33 33 32 31 31 31 32 32 32
40 41 44 44 44 44 44 44 45 46 47 48 52 54 54 53 55 55 53 51 51 48 45 40 36 35 35 35 36 37 36 35 36
34 33 34 37 37 38 40 43 45 48 50 52 54 54 52 51 54 56 57 57 56 57 54 49 44 41 39 38 39 41 43 43 39
39 37 38 42 41 40 40 42 43 45 47 50 53 55 58 58 56 55 54 55 59 61 62 60 54 48 47 49 51 50 51 50 47
47 49 47 49 51 49 50 49 50 53 54 57 59 62 64 67 66 64 61 60 57 63 68 69 66 58 53 53 59 61 60 59 57
55 50 51 53 54 53 56 58 55 58 60 62 64 68 71 72 72 73 71 69 70 69 69 72 75 72 67 61 61 68 70 67 67
53 57 49 44 47 48 51 50 53 60 62 68 73 72 75 74 73 74 74 75 77 76 74 76 80 81 79 76 73 71 76 78 74
36 36 34 30 31 34 40 52 57 58 62 68 76 77 72 73 67 69 72 74 76 76 79 83 86 88 86 83 84 78 80 80 80
26 27 29 32 36 44 46 47 48 55 62 63 65 71 73 73 69 69 72 76 79 83 84 82 87 91 91 91 88 85 79 84 83
28 29 31 40 42 41 38 36 37 43 52 61 64 67 70 75 73 70 70 78 88 92 93 90 89 92 91 95 94 92 92 87 89

GFSFLT1_prec_cthk_069.txt.gz
RH
24 27 27 28 25 19 16 16 17 19 20 21 21 23 25 28 31 32 34 33 37 35 34 32 35 38 37 37 40 40 38 39 46
24 25 27 26 23 23 20 21 21 22 23 23 24 25 27 28 32 34 35 38 36 33 31 30 29 33 37 37 38 42 44 46 46
25 25 26 25 24 24 22 22 23 24 25 26 27 27 29 30 33 35 36 35 34 33 28 26 26 28 31 33 35 37 38 42 42
26 28 29 28 27 27 24 24 24 24 25 26 26 27 27 27 27 28 28 29 27 26 24 23 22 22 23 23 24 31 31 33 33
28 29 30 32 34 35 33 28 26 26 26 28 29 30 31 30 29 28 28 27 25 24 22 21 20 19 19 19 19 20 23 25 27
27 29 30 31 32 35 35 34 34 33 29 29 31 31 32 33 32 32 32 31 30 28 24 22 21 20 19 19 19 19 20 22 23
30 31 33 34 34 35 36 36 36 37 38 37 35 35 37 36 36 36 34 33 33 32 29 26 25 23 22 22 22 22 22 22 22
34 35 36 38 38 37 38 39 39 41 42 44 44 41 40 41 42 41 40 38 36 34 32 30 28 27 26 25 24 23 24 24 24
35 36 37 37 37 36 36 36 36 38 40 43 44 47 49 47 46 46 46 46 43 40 36 34 31 29 29 28 27 25 26 27 27
34 36 37 37 37 37 36 36 37 39 38 39 41 44 47 50 52 52 51 51 51 48 46 42 37 32 31 31 30 28 28 30 31
38 39 41 44 44 42 42 41 41 41 42 42 43 43 44 45 48 52 53 55 57 57 52 49 46 41 35 32 33 33 33 34 35
40 41 40 41 42 42 40 40 41 42 44 46 49 51 51 50 49 49 49 53 56 59 60 58 55 51 45 39 36 35 36 39 39
38 37 36 38 39 40 43 44 42 42 43 45 48 51 55 56 58 57 57 57 57 57 57 58 62 62 57 51 44 41 41 41 42
37 38 40 43 45 48 48 48 50 50 52 52 51 53 56 59 61 62 66 67 67 67 67 64 63 66 67 64 62 52 46 49 50
49 54 53 53 58 54 54 56 54 53 55 56 53 54 57 59 60 67 72 75 77 76 75 73 73 73 72 73 72 73 61 54 53
51 55 60 64 66 70 60 53 50 53 52 51 51 60 64 65 68 72 75 77 78 80 83 82 80 80 81 81 78 76 77 71 58
42 47 54 56 55 50 47 44 43 42 50 56 64 64 62 63 66 67 70 73 73 73 76 80 82 84 85 87 87 84 80 80 77
37 38 41 42 39 35 31 32 39 43 49 55 63 64 60 57 58 60 65 70 68 70 75 82 86 91 90 92 94 93 87 85 84
23 23 25 27 28 29 31 34 42 46 46 44 46 54 61 60 57 59 62 65 77 72 75 75 80 87 95 95 93 96 96 92 94
22 23 24 27 30 31 34 40 41 39 36 39 45 47 51 50 58 52 59 64 65 70 70 74 79 84 96 94 96 97 97 97 98

GFSFLT1_prec_cthk_072.txt.gz
RH
24 24 25 24 20 17 17 17 18 19 20 21 24 26 29 32 32 33 33 35 36 33 31 31 31 34 35 37 40 39 37 47 49
24 25 25 24 21 20 20 21 22 23 24 25 26 28 30 33 34 34 35 38 35 33 30 26 28 32 35 40 37 39 46 46 46
28 27 28 26 24 22 19 21 21 22 23 24 25 26 27 29 31 32 32 31 30 28 24 22 22 23 27 30 36 37 42 43 44
29 28 29 29 29 30 27 25 23 23 25 27 27 28 29 29 29 29 29 29 28 27 23 21 20 19 20 22 23 29 31 34 33
29 29 30 32 32 32 31 31 30 31 32 31 31 32 31 31 31 31 31 31 30 28 26 24 21 20 19 19 19 19 26 29 30
29 31 32 33 33 34 33 32 33 34 35 36 38 38 38 38 37 35 36 35 33 31 30 27 25 23 22 22 21 20 21 22 22
28 30 34 35 35 35 35 34 33 34 36 39 42 44 44 43 42 42 43 42 40 37 34 31 29 26 25 25 24 23 23 22 23
29 32 35 36 36 36 35 34 34 34 34 35 37 41 45 47 48 48 47 47 47 46 43 39 34 31 28 27 26 26 26 24 25
31 31 32 32 33 33 33 34 35 35 35 36 37 38 39 42 45 47 49 49 50 51 50 47 43 39 34 30 29 28 28 27 27
34 33 33 34 35 34 34 34 34 35 37 38 39 40 41 41 42 44 46 48 50 52 53 53 53 49 45 39 33 30 30 30 31
34 35 36 39 40 40 39 39 39 39 39 41 43 44 45 45 47 48 48 49 50 52 53 56 56 55 52 51 47 38 32 31 34
36 38 38 39 39 39 39 39 38 40 41 44 47 49 51 51 53 56 58 58 58 59 61 61 61 62 60 56 54 52 45 39 36
34 36 37 39 38 39 42 44 46 45 47 50 52 53 55 56 55 55 60 62 64 66 69 69 69 69 69 69 65 61 58 52 46
36 36 38 41 46 51 52 54 58 54 55 50 49 52 53 55 54 56 60 64 68 74 77 79 79 76 75 74 75 76 73 63 57
36 37 41 51 55 59 61 65 67 69 60 55 47 49 48 49 55 62 67 68 72 74 75 78 80 81 78 77 77 81 83 81 74
40 42 41 45 53 56 59 63 60 55 55 51 42 41 46 49 60 66 66 64 65 66 70 74 77 78 81 84 83 84 87 88 86
36 36 38 40 42 46 49 48 46 42 37 39 43 44 43 48 51 51 55 58 60 61 65 70 75 75 77 77 80 83 88 94 93
32 30 31 35 38 35 34 34 33 31 32 39 46 51 48 44 45 49 52 51 53 57 61 67 70 74 74 74 78 82 84 87 93
26 25 25 27 26 27 29 32 33 34 37 41 46 45 42 44 44 44 46 44 48 48 52 63 62 61 68 69 73 76 81 89 96
23 23 23 24 25 27 29 33 34 35 37 40 38 42 50 50 49 44 45 43 42 42 46 46 49 48 55 60 65 75 81 83 89

GFSFLT1_prec_cthk_075.txt.gz
RH
25 25 23 20 17 17 18 19 20 22 23 25 26 28 31 32 32 33 33 39 35 31 28 28 29 31 35 36 35 34 42 48 48
27 25 24 21 18 17 18 19 20 21 21 22 24 25 28 30 31 32 34 37 31 27 24 21 26 29 30 32 38 40 42 46 44
28 27 27 26 26 23 23 22 21 22 22 23 24 26 27 29 31 32 33 32 30 27 23 20 19 20 24 27 29 32 36 40 43
33 30 29 28 28 28 27 28 29 29 28 27 27 28 28 29 30 30 31 31 30 28 26 24 21 20 20 22 23 24 27 32 34
30 31 31 30 31 31 30 30 32 34 33 33 33 33 34 35 35 35 35 34 33 31 30 29 27 24 22 21 20 20 20 21 29
30 30 31 32 32 33 33 32 32 33 35 36 37 38 39 40 40 39 40 40 39 38 36 33 30 28 26 24 23 22 21 21 22
28 29 31 33 33 33 33 32 31 31 32 33 33 34 36 39 40 42 45 46 45 43 42 40 38 35 31 28 26 25 23 23 23
26 27 28 30 31 32 31 31 32 32 32 33 34 35 36 37 39 40 41 43 47 48 48 47 45 42 38 36 32 28 27 25 25
29 29 29 29 29 29 30 31 32 31 32 34 36 37 38 39 40 42 43 44 45 47 48 49 49 49 49 44 40 38 33 30 28
30 32 31 31 32 33 34 33 33 33 33 36 39 40 40 42 44 45 47 48 49 50 51 51 52 53 55 53 49 47 42 37 34
33 33 34 35 37 39 38 38 38 38 37 40 41 42 45 47 48 50 53 55 55 54 54 54 55 56 58 60 61 56 51 48 40
35 37 38 38 38 38 38 39 39 41 43 45 46 48 47 44 46 51 53 54 55 58 60 60 61 63 63 64 66 67 62 57 52
37 36 38 39 39 38 38 42 46 47 50 54 57 55 49 46 48 50 51 53 58 62 65 68 71 69 68 65 66 69 70 68 63
41 39 39 40 39 40 43 49 52 53 59 60 58 56 53 50 47 47 50 56 61 66 68 68 69 68 67 67 69 70 69 74 75
42 38 36 40 43 47 48 51 53 52 51 53 50 51 50 46 42 44 48 52 59 61 62 65 67 66 65 66 67 68 67 70 75
43 39 38 40 40 40 44 43 44 45 48 51 46 39 33 32 39 43 44 49 53 57 60 61 63 64 66 66 69 69 68 69 72
39 37 35 35 34 34 36 38 40 40 38 39 36 34 31 32 41 45 45 45 46 51 55 55 55 61 61 65 68 65 70 73 75
33 32 31 29 28 27 29 32 34 33 32 32 36 40 39 43 45 41 40 45 43 44 43 47 50 52 53 59 60 60 63 70 75
29 28 27 26 25 25 25 28 30 32 35 34 33 37 41 45 43 46 51 47 44 40 37 37 39 44 47 49 51 53 53 59 66
26 25 24 24 26 28 27 27 28 33 36 35 35 36 37 38 46 49 48 41 31 36 33 35 38 40 43 45 47 50 56 62 66

GFSFLT1_prec_cthk_078.txt.gz
RH
23 23 21 17 17 17 18 19 20 21 22 23 26 27 28 28 32 31 36 33 28 25 22 28 30 33 32 32 30 38 40 44 45
25 25 22 19 17 18 18 19 19 20 21 23 24 26 27 31 31 35 35 30 27 23 20 19 22 24 29 30 35 38 37 43 42
29 28 27 26 24 24 24 24 23 23 23 24 25 25 27 31 32 32 32 27 27 26 24 22 20 19 23 25 31 31 32 35 38
33 31 30 29 29 27 28 29 29 30 31 31 31 31 31 35 31 32 35 30 29 29 27 25 24 22 22 24 24 24 26 28 30
31 31 31 31 31 32 30 30 31 31 32 33 33 34 35 40 37 38 38 36 36 36 35 33 30 27 25 23 23 24 23 23 22
30 31 31 32 33 34 33 31 30 31 31 31 32 32 36 38 39 40 38 40 41 42 41 40 38 35 33 29 26 24 24 24 23
28 29 30 32 33 33 33 32 31 31 32 33 33 35 35 35 37 38 37 39 40 41 43 43 43 42 40 37 35 32 28 26 25
27 27 28 29 30 31 30 30 32 31 31 32 33 34 36 39 39 41 40 40 42 43 43 44 45 47 47 46 43 39 37 32 29
28 28 28 28 28 29 29 31 30 30 30 31 33 36 38 39 40 42 41 43 44 45 48 46 46 48 49 51 50 47 44 41 38
29 30 30 29 29 30 32 32 32 31 33 34 36 39 41 42 43 42 40 41 45 46 46 49 49 50 50 52 56 56 53 49 46
30 32 31 31 33 36 38 38 37 37 39 40 41 44 46 47 47 43 41 42 45 47 47 49 54 58 57 58 58 58 58 57 52
34 36 37 37 36 36 38 38 38 39 42 44 46 48 51 54 52 46 42 42 44 46 49 56 59 60 62 63 63 61 58 58 58
38 39 41 40 38 37 38 37 38 41 45 47 49 52 50 49 48 46 46 42 43 45 51 58 62 62 60 63 63 62 62 64 61
40 41 43 43 41 39 38 40 43 45 47 47 46 47 46 48 51 50 45 39 42 47 48 53 57 59 59 59 59 59 59 61 65
42 41 44 45 42 40 42 43 43 44 46 46 44 46 47 48 47 41 34 36 40 44 47 53 54 57 57 58 58 60 61 63 63
42 42 43 44 47 47 42 42 42 43 44 47 45 43 38 32 30 29 35 40 43 45 47 50 50 51 52 54 53 57 59 61 61
39 39 39 39 38 38 38 37 37 36 38 40 40 35 29 32 32 34 37 42 39 40 42 41 44 45 47 48 50 52 54 55 61
32 32 32 33 34 32 31 32 33 35 34 36 36 38 38 39 39 36 37 37 42 48 46 43 39 40 43 45 46 44 50 53 55
29 29 30 30 30 29 28 28 28 34 37 34 34 36 38 42 42 39 36 41 45 44 34 29 34 36 36 40 44 47 48 50 50
28 28 28 28 27 27 26 26 28 34 34 37 36 38 39 39 43 44 50 44 42 36 31 31 30 31 33 37 39 41 44 46 48

GFSFLT1_prec_cthk_081.txt.gz
RH
20 18 16 16 16 17 18 20 20 20 22 23 23 24 26 28 32 37 30 28 22 20 18 24 24 25 28 30 34 36 38 43 40
21 19 17 16 17 17 19 20 20 21 22 23 25 27 29 32 38 33 31 24 23 22 20 19 19 21 24 31 33 35 34 37 38
26 25 24 23 23 23 24 25 25 25 26 26 26 29 31 37 34 33 28 27 26 25 24 23 22 21 23 25 27 30 32 34 32
32 29 28 27 27 26 27 28 28 29 30 30 31 32 34 38 37 39 38 34 32 32 30 29 28 26 24 23 23 24 26 27 28
29 30 29 30 30 31 30 30 30 29 29 29 29 29 31 37 38 40 36 36 37 37 36 35 34 32 30 27 25 24 24 24 24
29 29 30 31 32 33 34 32 30 31 31 32 32 32 37 38 38 39 36 35 36 37 38 39 38 38 37 34 33 30 28 26 25
35 29 29 30 31 31 31 31 31 31 35 34 32 34 37 39 40 41 37 37 38 38 39 40 41 41 40 39 38 37 36 34 31
28 28 26 27 29 30 30 30 31 36 33 33 34 34 34 39 42 42 40 39 36 35 36 38 40 40 41 44 44 42 42 42 40
34 33 33 31 34 34 34 34 35 35 32 33 35 37 38 42 43 44 43 40 38 36 37 38 39 39 41 44 47 49 49 47 43
32 32 32 32 32 32 33 34 35 35 35 36 39 41 42 44 45 47 47 43 39 36 39 39 40 42 44 47 48 49 51 52 49
32 33 33 31 31 34 37 37 38 38 38 39 41 41 43 44 47 45 43 44 41 41 39 40 40 43 50 54 53 52 52 51 51
33 35 36 35 36 37 37 37 37 37 36 38 41 41 43 42 42 43 42 44 43 43 41 40 42 45 50 52 53 53 55 55 53
36 37 38 39 41 40 40 39 38 36 39 41 43 43 42 44 45 46 48 48 46 42 38 39 43 45 48 50 51 52 52 52 55
40 41 42 42 42 43 43 42 40 41 44 45 44 46 46 45 47 47 47 46 41 34 36 36 41 43 46 50 50 52 52 52 54
46 45 45 44 42 42 44 47 47 47 45 44 44 44 45 45 45 42 37 36 38 38 39 40 42 44 48 50 49 51 53 56 57
48 46 46 46 44 45 45 47 47 47 44 46 45 41 44 45 36 32 33 38 40 40 40 40 40 43 43 44 47 49 50 51 55
45 42 43 44 43 43 44 45 46 44 38 43 44 44 38 38 37 37 37 37 38 39 36 41 45 45 43 42 41 45 47 48 48
38 36 35 35 36 35 37 39 40 38 40 39 45 47 45 47 44 38 35 38 38 36 40 46 42 34 33 34 37 38 41 46 46
31 31 31 31 32 32 32 33 33 35 39 37 37 45 47 47 42 40 37 41 42 47 47 46 41 29 27 30 30 34 36 39 42
31 31 31 30 29 30 29 29 28 30 37 34 36 39 39 39 48 48 49 49 48 49 48 41 31 31 31 30 30 30 32 35 39

GFSFLT1_prec_cthk_084.txt.gz
RH
16 14 14 15 16 16 17 18 19 20 22 23 24 26 28 32 34 28 24 22 22 21 19 20 21 23 27 33 34 34 38 37 37
17 15 15 15 15 16 17 18 19 21 23 25 26 28 31 33 35 31 26 25 26 24 23 22 21 21 24 27 32 33 32 34 32
23 21 20 21 21 22 23 25 26 27 27 29 31 32 35 36 35 33 32 32 32 32 30 29 27 25 24 23 24 25 26 27 27
27 25 25 25 25 25 27 27 27 27 27 27 28 29 32 32 32 34 33 32 33 34 34 34 32 30 29 27 25 24 24 24 23
27 27 27 28 28 29 29 30 29 28 30 31 31 30 33 35 36 38 36 35 36 36 35 34 34 34 33 32 31 31 29 28 26
28 28 28 29 30 31 31 30 29 29 30 30 30 30 34 37 39 40 38 37 38 37 35 35 35 35 35 34 34 35 34 34 33
28 29 28 28 29 30 30 29 29 30 30 30 30 32 34 37 41 41 40 38 37 37 35 34 34 35 36 37 37 38 38 38 38
30 27 25 25 25 27 29 29 30 30 30 31 30 33 34 36 41 42 41 40 39 38 35 33 34 35 35 36 38 41 42 42 42
30 28 27 25 25 27 30 29 31 32 30 31 31 33 37 37 40 40 40 39 37 37 36 36 35 36 36 36 39 43 44 45 46
33 31 30 28 27 28 28 30 30 32 33 33 33 36 37 37 39 38 37 39 40 42 41 40 38 37 37 40 43 48 48 47 47
35 32 30 30 27 27 30 33 34 33 34 34 33 35 35 37 38 39 39 40 43 43 44 44 42 38 37 39 42 46 48 51 49
34 33 34 33 32 33 34 35 36 35 34 32 34 35 36 39 40 42 42 42 44 44 45 44 40 39 39 41 45 44 46 48 50
40 37 38 38 37 36 36 37 38 38 38 38 40 42 41 41 43 44 45 46 45 41 36 33 35 40 43 46 45 48 47 48 49
44 43 43 42 42 40 39 38 41 43 45 50 49 49 43 46 49 45 46 48 46 42 39 38 38 41 44 45 46 53 55 49 52
52 49 49 49 48 45 44 44 48 47 49 49 48 46 43 47 40 44 39 38 40 45 45 41 41 42 40 42 45 46 45 49 54
56 52 52 54 50 49 50 51 52 51 52 50 47 42 40 41 41 42 44 43 43 42 42 42 42 42 43 44 44 42 43 44 46
52 51 51 49 45 44 44 43 42 41 41 46 46 41 40 40 41 42 47 46 42 40 40 39 42 44 46 40 35 32 35 40 41
48 48 47 43 41 39 39 39 40 41 42 43 44 44 44 43 45 49 46 42 41 42 44 46 45 43 40 33 28 29 32 32 35
44 40 36 34 33 33 34 35 36 39 39 38 39 40 44 46 47 44 44 44 46 46 53 48 47 44 41 31 30 30 28 30 31
38 36 35 34 33 33 32 32 33 32 32 36 36 36 41 41 45 45 41 49 50 55 48 46 49 45 37 34 32 32 31 31 32

GFSFLT1_prec_cthk_087.txt.gz
RH
13 14 14 15 15 16 17 18 19 21 21 23 26 27 29 28 28 24 24 25 25 24 24 23 22 25 28 30 31 31 30 30 30
14 14 14 15 16 17 18 20 22 24 26 27 30 34 33 33 30 28 28 29 29 30 29 28 27 27 27 28 29 29 27 27 26
18 18 19 20 21 22 24 24 25 25 27 28 30 32 31 32 30 31 31 32 32 32 32 30 29 29 29 29 29 28 27 25 24
22 23 23 24 25 27 27 27 26 27 28 29 30 31 32 32 34 35 35 35 35 36 35 34 32 31 31 30 30 30 31 30 28
25 25 25 26 27 28 29 29 28 29 30 29 29 30 32 34 36 37 37 37 37 35 35 34 32 32 33 34 34 33 33 33 33
28 27 27 27 28 28 28 28 28 28 29 29 29 30 33 35 38 39 39 38 37 37 36 32 30 30 33 34 35 36 36 36 37
30 29 28 28 27 28 28 28 28 28 28 29 29 30 33 35 37 39 38 37 36 35 36 36 35 32 32 34 35 37 38 39 39
30 28 26 25 24 25 26 26 27 28 28 29 29 30 32 35 36 37 38 38 36 37 40 41 39 37 36 35 35 37 41 43 43
31 28 26 26 24 24 25 26 27 28 29 29 30 30 32 35 34 35 36 38 39 40 41 43 45 43 40 37 37 39 43 46 47
35 31 28 27 26 25 24 25 27 28 29 31 31 30 33 32 33 35 37 40 41 40 43 44 44 42 40 38 38 40 44 47 49
41 35 30 29 28 27 28 30 33 34 34 33 30 30 33 33 34 38 41 46 44 44 47 47 47 42 39 41 43 44 48 48 49
44 40 35 34 33 34 33 35 35 36 36 36 38 39 39 41 42 43 47 47 47 47 48 45 41 35 35 49 50 58 57 51 52
43 42 40 39 39 39 39 38 38 37 39 40 41 45 46 47 47 47 52 48 51 48 47 49 44 42 42 40 44 52 65 74 76
46 45 45 46 46 44 44 43 43 43 44 47 47 48 48 48 46 46 45 49 48 44 48 49 42 42 40 39 39 39 46 56 59
48 49 51 52 51 51 50 50 47 46 47 46 47 47 47 46 40 38 42 45 44 45 47 47 42 41 38 37 40 42 42 44 44
54 55 53 54 54 54 52 49 46 44 45 48 43 41 40 38 35 36 41 47 49 46 44 45 46 38 37 40 43 40 36 36 35
58 57 57 54 52 50 50 48 45 44 43 46 45 44 39 38 38 37 40 48 50 51 48 41 40 42 44 44 40 33 32 29 32
56 56 53 52 47 45 43 41 39 40 39 45 47 48 45 43 42 44 47 51 48 46 43 43 42 45 45 44 41 34 28 28 27
65 56 53 47 42 39 37 36 35 40 38 38 38 41 45 49 47 42 45 49 47 44 46 47 48 48 44 45 41 34 30 30 29
57 53 46 44 44 41 38 37 36 38 37 34 35 38 41 40 45 45 43 48 47 51 51 54 48 49 47 40 34 34 31 31 31

GFSFLT1_prec_cthk_090.txt.gz
RH
13 14 14 15 15 16 17 19 20 22 24 26 30 31 29 29 29 27 28 28 28 28 28 27 28 33 34 33 31 29 26 27 27
14 14 14 15 17 19 21 24 26 25 26 26 29 29 30 28 31 30 31 31 32 32 31 29 29 29 30 31 31 31 29 27 25
17 18 20 20 22 23 24 25 25 26 28 29 30 30 32 32 34 34 34 34 35 34 33 33 31 29 29 29 30 30 31 31 30
21 22 23 24 25 27 27 27 26 27 28 28 29 30 32 33 35 37 36 35 35 35 34 34 31 30 30 30 31 32 33 33 33
22 23 24 25 26 27 28 27 27 27 28 28 28 30 32 35 37 38 37 37 35 35 35 34 32 32 32 31 32 33 34 34 35
25 25 25 26 26 27 28 27 26 26 27 27 27 29 33 35 37 38 37 38 38 36 36 37 37 35 33 31 32 33 35 37 38
28 27 26 26 26 26 27 26 26 26 27 28 28 28 31 34 35 36 36 37 38 38 38 38 40 40 39 35 33 32 35 37 40
30 28 26 25 25 24 25 26 27 27 27 27 28 29 29 32 34 33 35 37 40 41 41 41 42 42 42 40 37 35 36 38 40
32 29 27 26 26 25 24 24 26 28 30 30 30 31 31 32 32 34 36 39 42 44 44 43 44 43 45 44 40 39 41 41 41
37 34 30 27 27 26 25 26 28 30 31 31 31 30 30 33 34 36 38 41 45 47 48 48 46 45 45 44 41 49 48 48 48
41 39 34 30 30 29 29 30 31 33 34 34 34 36 36 38 40 42 45 43 47 49 50 52 48 40 36 38 45 63 63 65 62
42 43 38 36 35 33 33 33 35 36 37 36 37 39 41 43 46 47 47 44 48 46 49 47 46 43 49 54 47 53 65 68 69
41 45 41 42 40 40 40 40 40 40 41 41 43 45 47 48 48 48 48 45 44 49 47 45 51 48 43 38 42 42 47 55 64
41 46 45 45 45 47 47 47 47 45 44 44 44 45 45 46 46 44 44 44 44 44 44 47 46 44 41 39 38 37 40 43 47
45 47 48 49 51 51 53 54 53 51 46 43 45 44 43 43 40 38 38 42 46 46 45 46 41 40 42 41 39 41 43 42 44
53 52 52 52 56 54 54 53 51 49 47 46 42 42 40 38 36 36 35 39 43 49 55 52 47 46 41 43 43 43 40 36 35
59 58 57 57 56 57 57 52 49 47 48 46 45 43 41 39 38 38 37 40 45 50 51 56 46 44 47 45 46 45 41 35 31
77 69 61 66 59 56 50 48 50 46 43 43 47 47 48 45 45 45 46 47 49 54 52 45 46 47 48 48 46 46 43 36 28
75 74 71 61 57 52 48 48 47 45 43 40 43 43 48 50 48 47 47 51 51 51 52 51 49 51 48 47 44 41 34 30 30
79 71 63 61 58 53 47 47 45 43 41 39 38 39 43 44 46 49 50 51 50 51 52 51 52 58 54 47 39 37 32 32 32

GFSFLT1_prec_cthk_093.txt.gz
RH
14 14 14 14 15 16 18 20 23 24 26 26 27 27 26 26 27 29 29 30 30 30 29 29 32 37 35 34 35 33 29 27 25
14 14 14 17 20 22 23 24 24 25 27 29 28 28 29 31 32 32 32 33 33 32 31 31 29 28 28 28 29 29 29 29 29
17 18 19 21 22 25 25 26 26 28 28 29 29 30 31 32 33 34 34 33 34 34 33 33 31 30 29 29 28 29 29 30 30
20 21 22 23 25 26 26 26 27 28 29 28 29 30 31 33 34 35 35 34 34 34 33 34 34 34 32 30 29 30 30 31 32
21 21 22 23 24 25 26 25 26 27 28 29 28 29 32 34 35 36 35 34 36 35 34 35 36 36 35 33 32 31 31 32 33
23 22 23 23 24 24 25 25 26 26 27 28 27 28 31 34 35 35 34 35 37 37 38 38 39 38 38 36 35 33 31 32 34
28 26 25 25 24 24 24 25 24 25 26 27 28 28 30 31 34 33 34 35 37 39 41 39 40 41 40 40 39 36 34 32 34
32 30 27 26 25 24 24 24 25 26 27 27 28 29 29 30 32 32 34 35 37 41 42 41 43 44 44 42 43 41 38 38 37
35 32 29 25 25 25 24 25 25 27 30 31 32 32 31 31 32 34 36 39 42 43 46 44 45 46 44 44 41 38 45 47 48
40 37 35 30 27 27 27 26 28 30 32 34 34 34 34 35 36 39 43 47 48 46 49 49 48 49 39 37 51 51 55 59 60
42 42 42 36 32 31 30 30 31 32 33 34 35 36 36 38 41 45 47 49 49 48 47 47 49 48 45 52 47 58 57 61 66
42 43 44 43 40 37 34 34 35 35 36 37 38 39 41 43 44 46 47 49 48 46 44 48 46 54 55 50 48 43 47 50 68
44 42 43 45 45 43 41 39 39 41 42 43 44 43 44 44 44 45 46 46 46 45 46 47 48 50 43 42 39 42 37 38 43
49 42 42 45 47 47 48 48 48 48 49 49 48 45 43 42 44 42 44 45 42 44 45 44 46 46 48 39 38 38 37 37 41
53 46 46 46 47 50 51 51 52 53 53 51 50 45 43 41 42 38 39 41 41 45 47 45 50 48 48 46 41 41 42 39 39
63 60 54 52 51 52 55 54 53 53 51 48 46 43 41 38 38 38 39 41 41 45 48 52 55 62 51 43 44 46 44 45 40
69 67 61 58 55 54 55 55 56 54 53 51 49 47 40 39 39 41 42 41 42 47 53 56 56 52 49 45 47 46 45 45 42
80 81 78 74 64 64 64 58 55 50 51 48 50 50 47 43 44 46 47 47 49 50 53 55 53 54 53 50 48 46 43 40 36
87 90 87 86 84 76 66 61 54 49 52 50 47 46 48 48 48 48 48 50 52 55 56 59 57 55 54 52 54 48 42 38 32
78 77 84 85 85 74 67 62 55 55 53 51 47 44 43 43 44 44 44 49 51 58 54 54 54 55 55 60 52 48 43 38 34

GFSFLT1_prec_cthk_096.txt.gz
RH
14 14 15 15 15 18 20 22 24 24 24 26 25 26 27 28 29 30 30 30 30 28 29 28 28 29 30 29 27 27 26 26 25
14 15 15 18 20 21 23 24 25 25 26 27 28 29 29 31 31 30 31 31 31 31 31 31 30 28 27 27 28 28 28 28 27
17 19 20 22 23 24 24 24 25 26 27 27 28 30 30 32 32 32 32 31 31 32 30 30 31 31 31 30 28 28 28 28 28
21 22 23 24 26 26 26 25 26 26 27 28 29 29 32 33 33 33 32 31 32 33 34 34 33 33 34 34 33 30 29 28 28
23 23 24 25 26 26 25 25 26 26 26 26 27 28 31 33 33 33 32 32 34 34 35 36 36 36 36 37 37 34 31 30 30
24 24 24 24 25 25 25 24 24 25 25 25 26 26 29 30 32 33 32 32 33 35 37 38 37 38 39 41 41 40 37 32 30
27 26 25 25 24 24 24 24 24 24 24 25 26 26 28 28 30 31 32 32 34 35 37 39 39 39 40 42 43 42 38 34 36
33 31 29 28 27 25 25 24 24 24 25 26 27 28 28 28 29 31 33 35 37 39 39 40 41 42 44 44 42 40 39 43 43
37 36 34 29 27 25 25 25 25 26 28 29 31 32 32 32 33 35 37 40 43 43 43 42 41 42 45 40 45 54 51 52 53
43 40 36 34 29 28 28 28 28 29 31 32 34 35 35 35 35 38 41 44 45 45 45 44 40 47 57 63 55 52 52 54 55
42 42 43 42 38 33 31 31 32 34 35 35 36 37 38 39 40 42 44 46 46 47 46 40 44 52 53 54 52 51 45 45 50
41 41 42 44 46 42 38 36 37 38 39 39 39 40 41 42 42 41 42 46 46 46 47 43 47 50 48 54 52 51 47 41 47
47 45 42 42 46 47 46 45 44 44 44 45 45 45 45 45 43 43 42 40 44 46 45 43 47 44 44 55 50 43 39 39 35
57 53 48 44 44 50 50 50 51 51 51 51 51 50 48 45 42 40 42 40 40 41 41 48 50 47 51 50 47 46 39 38 39
62 60 57 53 49 50 52 53 53 55 53 54 50 50 48 44 39 38 38 38 40 41 43 47 51 50 51 53 50 45 40 42 42
68 64 61 62 63 60 57 57 55 55 55 52 51 50 47 42 38 37 36 37 39 40 43 47 51 57 51 55 47 43 44 41 40
73 69 68 65 67 67 63 58 56 57 58 54 52 53 46 42 41 41 41 41 42 44 48 48 52 64 56 54 51 48 48 43 38
78 78 79 79 79 80 77 74 66 58 57 52 52 56 53 49 48 46 45 47 46 45 50 53 57 58 56 61 53 51 50 44 39
86 89 90 93 84 82 85 81 69 65 61 55 54 54 55 53 52 51 48 49 49 49 50 58 57 59 59 58 55 54 55 47 41
90 93 99 95 89 88 91 85 76 66 60 58 57 57 58 57 58 52 48 48 48 51 52 54 60 59 56 58 58 56 59 49 41

GFSFLT1_prec_cthk_099.txt.gz
RH
13 15 16 16 16 18 21 23 25 24 24 23 24 25 27 28 28 29 29 29 29 28 27 26 26 26 27 27 27 26 25 25 25
15 15 16 19 21 22 24 26 26 25 26 25 25 27 28 29 30 30 29 29 29 29 28 29 28 28 29 29 28 28 27 26 26
15 18 20 22 24 25 26 27 28 27 26 26 27 28 30 30 30 30 28 28 29 29 30 30 30 30 30 31 30 30 29 28 27
19 22 24 25 25 26 26 27 27 27 27 27 28 29 31 31 31 30 29 29 29 30 31 31 31 32 32 33 33 32 32 31 29
23 24 25 26 28 28 27 26 26 26 27 27 27 27 30 31 31 31 30 30 30 30 32 32 33 34 35 36 36 35 35 34 32
24 24 24 25 27 27 26 26 26 25 25 26 26 26 27 27 28 29 29 29 30 31 33 33 35 36 36 38 38 38 37 33 34
24 24 24 24 25 25 25 24 24 24 23 24 25 26 28 28 28 29 30 31 34 36 38 36 36 37 38 40 39 37 37 38 41
27 27 25 24 25 24 24 23 22 23 23 25 25 26 28 29 30 31 32 35 37 40 42 41 39 37 39 44 46 47 49 47 48
31 32 31 29 27 26 24 23 24 24 26 28 29 31 33 33 33 33 34 37 40 43 43 43 38 43 53 52 54 50 50 51 50
36 36 35 32 29 27 27 27 27 27 29 31 32 32 34 35 37 37 38 40 43 44 43 43 39 53 50 50 55 53 51 48 45
40 40 39 37 37 34 31 30 31 32 34 34 35 36 36 38 40 41 42 43 44 44 44 43 41 47 50 50 52 55 54 53 48
41 41 40 41 42 44 41 37 36 37 38 38 38 40 41 42 42 40 41 42 39 42 42 43 42 47 46 47 48 56 52 49 39
42 43 41 41 41 44 47 45 45 45 45 46 46 46 45 46 44 44 41 40 43 39 42 43 41 43 45 48 53 52 44 42 39
49 49 48 48 46 45 46 48 50 51 52 51 51 49 49 48 45 44 41 39 39 38 38 41 44 46 47 55 59 50 45 42 41
60 60 60 56 52 52 52 51 49 49 53 50 51 52 50 48 44 42 39 35 34 37 40 42 45 51 51 52 51 51 48 47 46
75 73 70 66 61 60 63 65 59 57 53 52 51 50 47 48 41 39 37 36 38 40 41 43 47 51 51 54 51 51 50 49 49
82 84 78 70 68 67 68 69 66 60 57 58 54 50 48 44 43 43 42 41 41 43 43 45 50 53 55 61 56 52 53 50 51
84 88 85 83 78 77 78 75 82 80 70 64 63 59 54 53 52 51 49 48 47 45 44 47 51 52 57 56 54 57 56 54 55
85 89 95 95 94 95 93 92 87 86 85 69 63 60 61 58 59 57 54 54 53 53 53 52 52 57 57 57 57 54 54 55 54
89 96 99 97 99 99 94 94 95 87 82 69 64 58 57 58 64 62 60 57 54 53 52 53 54 54 56 61 56 58 57 57 54

GFSFLT1_prec_cthk_102.txt.gz
RH
13 15 21 23 21 20 23 27 24 24 23 23 24 25 26 28 29 28 28 28 26 26 26 26 26 26 27 27 27 26 26 25 25
14 16 16 18 20 24 25 26 26 25 25 25 26 28 29 30 29 29 30 28 28 27 28 28 27 27 29 29 29 29 28 27 27
15 15 18 20 21 25 26 26 26 25 24 25 27 29 30 32 31 29 28 27 28 29 30 30 30 29 30 30 31 31 30 29 27
16 18 20 22 23 24 26 27 26 26 26 26 27 29 30 35 31 32 32 28 28 29 31 32 32 32 32 33 33 33 33 32 29
20 21 23 24 25 25 26 26 27 26 26 26 26 27 28 32 30 30 29 28 30 30 32 33 33 34 34 35 36 35 36 33 32
24 25 26 27 28 27 26 25 25 26 26 25 24 25 28 29 28 31 28 29 31 34 36 36 36 35 35 36 37 35 36 36 37
32 26 27 27 27 26 25 25 24 24 24 23 24 26 27 27 27 29 29 31 34 36 39 39 39 37 37 40 42 41 44 43 42
26 25 26 26 26 25 24 23 23 23 24 25 26 25 26 31 30 30 31 32 36 38 40 41 41 38 48 50 48 48 49 49 48
28 28 27 27 26 26 24 26 24 23 24 28 32 29 31 33 32 33 33 36 38 40 41 41 41 48 53 51 50 51 51 49 48
30 31 30 32 30 28 25 25 25 26 29 29 31 34 35 36 37 38 36 37 39 41 42 41 44 45 47 46 49 51 50 50 51
35 36 35 35 33 30 28 31 30 31 31 35 34 36 36 37 37 38 39 38 39 40 41 41 39 45 47 48 47 46 48 49 50
42 43 42 40 39 38 37 33 31 32 34 36 37 38 38 38 40 39 38 36 36 38 36 39 43 46 45 47 43 45 48 49 43
47 47 46 45 44 44 44 44 41 41 43 42 41 43 45 45 42 39 41 43 41 40 38 37 38 40 45 46 53 52 50 46 42
48 48 50 47 48 45 45 45 47 49 47 48 49 44 46 46 47 47 45 42 37 36 37 37 39 41 46 45 52 54 51 46 44
54 54 52 54 53 51 49 51 50 50 53 50 48 48 50 48 47 45 42 40 35 34 37 39 41 46 48 48 50 51 49 49 46
73 65 67 65 63 60 58 59 62 60 57 57 55 53 51 46 42 43 41 39 38 38 40 43 41 45 52 54 55 54 53 50 48
85 82 77 76 78 74 70 71 70 69 69 64 59 58 57 55 49 50 50 46 46 42 43 44 47 53 55 55 55 59 57 52 52
93 92 87 86 86 83 77 77 78 83 78 71 68 70 67 61 60 55 57 55 53 53 51 49 52 58 60 60 57 61 58 53 52
92 93 95 93 96 97 92 87 88 87 91 93 85 71 66 64 63 65 60 60 60 60 60 57 57 58 60 60 62 60 59 58 56
87 86 94 93 94 98 98 99 98 95 93 94 90 78 63 62 68 66 68 63 61 63 60 58 57 57 58 59 59 60 66 61 62

GFSFLT1_prec_cthk_105.txt.gz
RH
21 26 23 21 21 20 21 20 22 22 21 21 22 24 26 30 32 30 29 26 25 26 26 26 26 26 26 26 26 26 26 26 25
22 25 22 21 21 21 21 22 22 23 23 23 24 26 29 32 33 32 28 26 26 27 28 28 28 28 27 28 28 28 28 27 26
20 24 23 20 19 23 23 23 23 24 24 24 26 28 30 34 34 32 26 26 27 28 29 30 30 30 30 30 30 29 29 30 28
19 24 23 22 22 24 24 24 24 24 24 25 26 28 31 35 34 34 28 26 27 28 30 31 31 32 31 31 31 32 32 32 30
22 24 27 27 25 25 25 25 25 24 24 25 25 26 30 34 33 33 27 27 28 30 32 33 34 34 33 33 34 35 34 33 33
25 29 30 28 27 26 26 27 26 24 25 24 24 25 30 31 32 33 28 28 30 33 34 36 36 35 33 36 39 39 39 39 38
30 26 28 29 28 28 27 27 26 24 25 23 23 25 28 29 29 30 28 29 31 33 36 36 37 38 37 46 45 45 46 43 42
33 30 29 29 29 28 26 25 25 25 26 26 27 28 28 32 31 30 29 30 32 34 36 37 37 36 46 47 46 45 45 46 43
34 29 28 28 26 30 27 26 27 26 26 27 29 30 30 32 32 31 31 32 33 35 37 39 39 39 46 47 48 47 47 46 45
34 34 34 32 31 32 30 29 28 27 28 29 29 29 31 33 33 34 33 34 35 37 37 37 38 43 46 44 46 47 47 47 47
34 35 37 37 37 36 34 32 31 31 31 32 32 33 33 34 35 37 38 36 35 36 39 37 38 45 50 45 48 46 45 45 46
36 40 41 41 41 39 36 37 35 34 36 38 39 39 40 41 43 42 41 39 36 38 38 38 39 40 46 47 47 49 51 48 45
43 44 43 42 41 41 45 46 44 41 41 43 45 45 45 44 46 44 43 46 46 44 41 39 39 38 44 46 54 53 54 50 49
48 48 56 50 51 50 51 50 50 50 52 54 57 56 51 49 47 48 47 44 41 38 39 39 37 39 41 47 49 48 52 51 50
55 65 60 53 59 53 53 52 50 51 53 58 59 59 56 57 49 48 45 45 39 37 38 42 40 40 43 46 48 49 54 52 53
65 66 62 65 61 62 58 56 54 54 60 61 59 58 58 50 48 47 48 48 43 45 44 49 43 40 47 50 53 57 58 57 57
73 71 70 73 80 75 72 72 67 68 69 69 77 74 66 60 54 48 49 52 51 51 52 51 50 49 53 56 59 59 58 61 59
74 77 72 75 86 88 87 81 80 79 81 84 85 82 77 72 63 60 58 54 57 56 56 55 54 55 59 62 61 61 59 61 57
78 76 74 82 90 92 91 96 92 92 93 93 90 89 86 77 67 68 64 60 60 61 60 61 61 61 61 60 61 60 59 58 60
83 79 80 83 89 92 90 94 92 98 98 96 94 92 90 87 80 77 75 73 68 66 62 63 62 64 61 61 63 62 60 60 66

GFSFLT1_prec_cthk_108.txt.gz
RH
30 35 30 23 15 14 15 16 18 19 19 20 22 26 29 28 27 28 26 24 24 25 25 25 25 25 25 25 25 25 25 25 24
30 33 26 20 17 19 18 19 20 20 20 21 24 28 31 31 30 26 25 24 25 26 26 26 27 26 26 27 27 27 27 27 26
32 30 25 24 26 23 21 21 21 21 21 22 25 29 33 33 31 26 25 25 25 26 27 27 27 28 29 29 30 29 28 28 28
32 27 24 26 27 26 24 23 23 22 22 23 25 29 34 34 33 30 25 24 25 26 28 30 30 30 31 31 32 34 32 31 31
28 26 27 28 28 29 26 25 24 23 23 24 26 28 32 32 32 30 26 25 27 28 30 32 33 33 31 33 38 38 37 35 36
27 27 29 30 31 31 28 26 25 23 23 24 25 26 30 30 31 30 26 26 28 29 31 32 33 34 34 41 44 43 42 41 40
25 27 30 32 32 32 28 28 26 24 23 22 23 25 26 27 27 28 27 28 30 31 32 33 33 33 34 43 44 44 42 42 42
26 26 27 29 28 28 29 28 26 25 26 25 24 27 27 28 29 29 29 29 31 32 33 34 36 35 43 42 42 43 42 41 40
26 25 27 28 29 30 29 27 26 24 26 26 27 29 29 30 31 32 32 32 33 34 35 35 35 40 45 44 42 44 45 43 42
29 29 29 29 28 28 29 30 29 28 25 28 31 31 33 35 36 35 36 36 36 36 36 36 35 40 42 48 44 45 44 43 41
33 32 29 30 31 33 32 31 32 30 31 32 33 34 38 38 38 37 37 37 35 33 34 36 35 38 43 48 47 45 45 45 43
36 35 33 34 36 35 35 34 34 34 36 35 37 38 39 40 45 46 45 38 37 42 39 38 38 40 38 43 46 48 48 48 47
35 35 37 38 39 38 36 38 40 39 38 38 40 42 44 43 45 49 42 46 46 44 41 38 37 37 38 44 48 50 48 48 48
38 39 40 41 43 43 43 45 49 45 47 47 49 53 53 52 51 47 50 48 44 40 36 37 38 38 40 42 49 52 49 51 49
44 45 47 48 49 50 53 56 49 48 52 53 54 56 56 54 60 55 49 44 40 38 39 43 45 48 47 53 52 48 51 55 53
53 54 56 58 56 56 70 61 58 55 60 59 61 62 57 60 56 47 44 45 44 44 47 54 54 51 52 54 56 58 59 57 57
61 61 63 61 66 77 79 67 72 64 65 64 66 65 70 74 72 64 55 53 50 51 56 56 55 53 56 60 62 63 63 59 57
67 70 73 75 82 84 79 82 81 85 75 82 88 88 83 80 78 73 64 62 59 59 59 61 61 61 61 62 64 67 67 64 61
79 83 84 86 87 86 80 85 94 94 98 97 95 96 91 87 86 79 78 73 67 68 65 63 63 62 62 65 67 69 69 68 65
94 91 90 87 92 83 77 77 83 86 92 95 96 97 91 85 77 85 79 73 72 69 67 61 58 58 56 62 64 66 72 71 68

GFSFLT1_prec_cthk_111.txt.gz
RH
36 36 31 24 15 14 16 16 18 18 18 20 21 24 27 30 29 26 24 23 23 24 24 24 24 25 25 26 26 25 24 23 23
39 37 34 20 15 17 18 19 20 20 20 21 23 25 26 26 26 25 24 23 24 25 26 25 26 26 27 28 28 27 25 25 25
39 38 32 18 18 20 20 21 21 21 21 22 24 27 28 28 26 24 24 24 24 25 27 27 28 28 29 29 30 31 28 28 27
40 37 29 21 26 23 22 23 23 22 22 23 25 28 31 29 28 26 24 24 25 26 28 29 30 29 28 30 34 33 33 31 31
43 36 26 26 24 22 23 24 24 23 23 23 25 28 30 29 29 28 25 25 26 28 29 29 30 30 29 35 38 37 36 37 35
47 32 26 26 25 23 25 25 24 24 23 23 25 27 28 30 28 28 27 26 28 30 31 31 31 30 30 38 38 38 38 37 38
46 30 27 28 27 25 26 26 25 25 24 23 23 26 27 26 28 29 27 28 29 31 31 32 33 33 37 40 38 39 39 38 38
42 30 29 29 28 26 25 26 26 26 25 24 24 26 27 26 29 30 29 28 30 31 32 33 33 38 43 42 42 41 42 42 40
36 28 29 29 26 26 27 28 27 26 26 26 26 29 27 29 29 30 31 31 31 32 33 33 34 37 42 43 47 44 43 43 40
30 26 26 27 28 29 28 27 27 26 25 25 28 31 31 31 30 31 33 33 32 32 31 32 34 36 42 46 46 47 44 43 41
28 29 28 30 31 29 29 29 29 28 28 29 30 32 33 34 34 34 35 33 31 32 34 35 37 38 39 42 47 48 47 46 44
31 31 32 32 31 32 32 33 32 31 32 32 33 33 34 36 36 38 37 37 36 40 36 38 36 37 39 42 43 47 48 47 45
33 34 34 33 33 34 36 36 36 36 37 37 37 38 39 40 42 44 46 40 42 43 43 41 37 37 37 43 50 51 50 50 52
37 39 37 36 37 38 39 38 40 41 43 42 51 45 48 50 50 52 46 45 47 47 46 37 33 36 42 48 51 56 59 57 56
41 41 40 41 41 42 42 42 46 46 48 50 62 53 60 60 56 52 56 52 48 43 35 35 41 45 53 56 59 60 56 59 59
42 42 44 46 47 49 50 49 51 52 56 61 66 59 64 62 55 57 53 50 47 48 46 48 49 50 56 62 62 64 62 63 63
47 47 51 54 59 60 62 59 59 62 73 76 74 74 69 61 61 64 67 60 58 58 56 56 56 57 60 62 64 67 66 67 65
53 56 62 65 64 64 72 68 69 83 85 83 82 89 83 73 83 82 81 68 68 66 62 59 59 58 57 57 60 59 65 66 69
67 72 68 69 74 77 79 83 78 88 88 86 82 94 95 90 91 90 85 80 83 79 69 61 59 58 55 54 55 58 61 64 68
75 77 86 88 95 95 93 91 88 88 86 82 86 90 91 97 93 92 85 82 84 78 75 72 63 57 56 56 59 62 64 67 70

GFSFLT1_prec_cthk_114.txt.gz
RH
48 37 33 26 20 14 15 17 20 23 23 22 22 24 26 26 25 24 23 22 23 24 24 24 24 24 25 25 25 23 24 23 23
47 36 34 27 20 16 16 18 19 21 21 22 22 24 25 25 24 24 23 22 23 24 25 25 25 25 25 26 26 27 26 26 25
52 38 35 27 19 17 17 19 21 21 22 22 23 25 27 26 24 24 23 22 22 24 25 26 27 27 27 29 32 30 29 28 29
56 45 38 28 19 18 19 20 22 22 22 23 25 26 29 29 27 24 23 22 23 25 27 27 28 28 29 33 34 33 33 33 32
58 51 38 28 21 19 20 22 23 23 22 24 26 27 28 30 29 26 24 24 25 26 27 27 27 27 29 34 35 35 35 35 36
61 52 41 31 25 21 22 23 23 23 23 24 26 28 27 28 28 27 24 24 26 27 27 28 29 29 31 35 34 35 36 36 36
61 52 47 33 25 24 24 25 24 24 23 23 25 27 27 26 26 25 24 24 26 28 28 29 30 31 37 39 38 36 37 38 38
63 53 49 38 28 26 25 26 26 25 24 23 23 25 24 24 25 26 26 25 26 28 29 30 31 34 38 39 40 41 39 40 40
61 57 47 39 27 27 27 27 27 26 26 25 24 24 25 25 27 27 28 30 29 29 30 31 32 35 38 40 42 42 44 41 40
66 55 47 38 29 27 27 28 28 28 26 26 25 26 26 26 27 28 30 31 30 29 28 28 29 30 35 38 41 44 44 42 43
58 50 45 33 29 29 29 29 28 27 27 26 27 27 28 29 30 30 31 31 32 30 31 31 31 31 35 40 40 41 44 47 48
57 46 41 30 30 32 32 30 30 30 29 30 31 30 31 32 33 34 34 34 36 35 35 34 35 38 39 42 41 41 47 51 51
60 47 41 32 33 34 33 32 32 33 33 33 34 35 36 36 37 38 38 37 37 39 39 42 43 38 37 37 41 48 55 57 56
58 47 37 35 37 35 36 36 37 36 37 38 39 40 41 42 43 43 44 43 43 44 46 48 43 34 34 39 55 58 59 61 58
59 47 37 39 41 40 39 41 41 39 41 44 45 46 50 52 63 52 52 47 50 47 47 45 38 42 47 55 62 60 62 63 60
59 43 42 43 42 42 44 44 43 45 47 50 50 53 53 57 65 61 60 58 55 52 49 46 48 51 51 55 60 61 64 63 62
52 45 44 45 44 47 46 47 50 54 55 57 60 61 62 65 73 71 64 68 63 55 54 54 56 54 55 57 60 63 61 66 62
51 46 46 47 51 50 56 54 56 63 68 67 66 70 72 78 82 82 80 81 79 71 66 70 68 60 57 55 55 54 57 58 63
54 48 52 56 55 62 68 66 71 80 88 83 74 78 80 82 84 84 85 90 91 80 82 83 79 75 63 59 56 53 55 61 64
57 55 60 62 64 67 70 82 89 93 94 93 88 88 87 87 88 86 86 92 93 85 87 89 88 77 71 65 61 59 61 62 61

GFSFLT1_prec_cthk_117.txt.gz
RH
55 44 36 30 29 20 14 14 17 21 23 24 24 25 25 24 23 23 22 21 22 23 23 23 23 23 23 24 25 24 23 23 23
63 45 39 27 27 21 16 16 19 21 22 23 24 24 24 25 24 24 22 21 22 24 25 25 25 24 24 27 28 27 26 25 26
70 51 37 31 28 22 17 18 19 21 21 22 23 24 25 24 24 24 23 21 22 24 25 25 25 25 27 30 30 30 30 30 29
72 52 44 34 29 23 18 19 19 21 22 23 24 25 26 26 25 24 23 22 23 24 25 26 25 25 28 32 33 33 32 33 33
71 55 48 40 31 24 19 20 21 21 22 23 24 26 27 29 27 25 24 22 24 25 26 26 26 27 29 32 32 32 33 33 33
74 58 51 44 34 26 20 21 21 22 22 22 23 24 25 27 28 27 24 23 25 26 27 27 27 28 32 35 34 33 34 33 33
75 64 54 47 40 29 22 22 22 22 23 23 23 24 24 25 26 25 24 24 24 27 27 27 28 29 34 35 35 37 35 34 35
78 71 55 50 48 36 25 23 23 24 23 23 23 23 23 23 24 24 24 24 25 26 28 29 30 31 34 35 36 37 39 40 38
78 77 57 54 49 38 30 25 25 24 24 24 23 22 23 23 24 26 26 27 28 29 29 32 31 35 33 35 40 39 41 42 40
81 83 64 56 50 41 34 27 27 27 26 25 24 24 25 25 26 27 28 28 28 28 28 26 30 29 31 35 39 42 46 45 41
83 86 67 60 49 44 38 29 29 30 28 27 26 26 27 28 28 28 29 29 30 30 29 29 29 32 33 35 42 45 43 45 45
88 88 66 63 51 47 43 31 31 30 28 28 27 28 29 29 30 31 32 33 33 34 31 31 32 38 36 38 43 47 44 47 50
90 84 66 59 54 50 41 34 33 31 30 31 29 31 31 32 32 34 35 36 37 38 35 36 38 40 38 37 38 53 54 55 55
99 87 63 58 56 51 42 36 36 35 35 34 35 35 34 33 34 36 38 39 44 51 41 42 43 43 33 36 44 62 61 58 61
98 81 66 61 59 53 43 38 39 39 39 40 40 41 40 41 42 43 45 51 56 58 50 49 46 39 36 42 59 64 63 62 63
97 80 69 64 61 53 43 41 41 42 44 46 46 46 46 48 47 49 49 55 56 58 64 54 46 39 40 47 54 60 62 60 59
96 86 76 70 60 51 46 45 43 44 48 48 50 52 56 59 57 57 54 61 65 69 74 61 51 47 48 54 56 60 60 60 60
95 93 84 73 63 54 48 50 48 53 52 59 61 58 57 63 69 67 64 70 75 79 84 74 62 61 64 65 63 60 58 61 62
98 97 92 77 69 56 53 56 56 56 61 67 65 70 69 77 76 70 72 76 80 85 88 82 73 73 77 77 76 70 61 63 62
96 91 90 84 68 59 57 65 59 63 73 79 83 86 89 90 85 78 78 86 87 92 89 88 79 79 86 85 82 70 67 64 56